KB0UOA Weather Reports


Display with metric or nautical units.
time (UTC)temp
F
wind
direction
speed
MPH
gust
MPH
rain 1hr
in
rain 24hr
in
rain mn
in
humidity
%
barometer
mb
20260902223004 100 135 3.0 9.0 0.00 0.00 0.00 33 1014.0
20260902222904 100 133 3.0 9.0 0.00 0.00 0.00 33 1014.0
20260902222804 100 133 4.0 9.0 0.00 0.00 0.00 33 1014.0
20260902222704 100 135 4.0 9.0 0.00 0.00 0.00 33 1014.1
20260902222604 100 137 4.0 9.0 0.00 0.00 0.00 33 1014.0
20260902222504 100 145 4.0 9.0 0.00 0.00 0.00 33 1014.1
20260902222404 100 144 4.0 9.0 0.00 0.00 0.00 33 1014.1
20260902222204 100 140 4.0 9.0 0.00 0.00 0.00 33 1014.2
20260902222104 100 141 4.0 9.0 0.00 0.00 0.00 33 1014.2
20260902222004 100 146 4.0 9.0 0.00 0.00 0.00 33 1014.1
20260902221905 100 147 4.0 9.0 0.00 0.00 0.00 33 1014.1
20260902221805 100 143 3.0 9.0 0.00 0.00 0.00 33 1014.1
20260902221705 100 141 3.0 9.0 0.00 0.00 0.00 32 1014.1
20260902221404 100 142 3.0 11.0 0.00 0.00 0.00 32 1014.2
20260902221204 101 151 3.0 11.0 0.00 0.00 0.00 33 1014.1
20260902221104 100 153 4.0 11.0 0.00 0.00 0.00 33 1014.1
20260902220905 100 149 4.0 11.0 0.00 0.00 0.00 32 1014.2
20260902220805 100 151 4.0 11.0 0.00 0.00 0.00 33 1014.1
20260902220705 100 149 4.0 11.0 0.00 0.00 0.00 33 1014.2
20260902220605 100 146 4.0 11.0 0.00 0.00 0.00 33 1014.1
20260902220505 100 147 4.0 11.0 0.00 0.00 0.00 33 1014.2
20260902220405 100 143 4.0 9.0 0.00 0.00 0.00 32 1014.2
20260902220305 100 143 4.0 9.0 0.00 0.00 0.00 33 1014.2
20260902220205 100 148 4.0 9.0 0.00 0.00 0.00 33 1014.2
20260902220105 100 145 4.0 9.0 0.00 0.00 0.00 32 1014.2
20260902220005 100 147 4.0 9.0 0.00 0.00 0.00 33 1014.2
20260902215805 100 142 4.0 12.0 0.00 0.00 0.00 33 1014.3
20260902215705 100 145 4.0 12.0 0.00 0.00 0.00 33 1014.2
20260902215605 100 148 4.0 12.0 0.00 0.00 0.00 33 1014.3
20260902215505 100 147 4.0 12.0 0.00 0.00 0.00 33 1014.3
20260902215405 100 152 4.0 12.0 0.00 0.00 0.00 33 1014.3
20260902215306 100 154 4.0 12.0 0.00 0.00 0.00 32 1014.4
20260902215205 100 152 4.0 12.0 0.00 0.00 0.00 33 1014.3
20260902215105 101 156 3.0 12.0 0.00 0.00 0.00 32 1014.3
20260902215005 101 156 3.0 12.0 0.00 0.00 0.00 32 1014.3
20260902214904 101 160 3.0 10.0 0.00 0.00 0.00 32 1014.4
20260902214805 100 167 4.0 10.0 0.00 0.00 0.00 33 1014.4
20260902214605 100 173 4.0 11.0 0.00 0.00 0.00 33 1014.4
20260902214505 100 173 4.0 11.0 0.00 0.00 0.00 33 1014.4
20260902214405 100 167 4.0 11.0 0.00 0.00 0.00 32 1014.3
20260902214205 100 162 4.0 11.0 0.00 0.00 0.00 32 1014.4
20260902214105 100 160 4.0 11.0 0.00 0.00 0.00 32 1014.4
20260902214005 100 160 4.0 11.0 0.00 0.00 0.00 32 1014.5
20260902213905 100 159 4.0 11.0 0.00 0.00 0.00 32 1014.4
20260902213805 100 153 4.0 11.0 0.00 0.00 0.00 33 1014.5
20260902213705 100 150 4.0 9.0 0.00 0.00 0.00 32 1014.5
20260902213605 100 147 4.0 9.0 0.00 0.00 0.00 32 1014.5
20260902213505 100 146 4.0 9.0 0.00 0.00 0.00 32 1014.5
20260902213405 100 144 4.0 8.0 0.00 0.00 0.00 32 1014.5
20260902213305 100 147 4.0 8.0 0.00 0.00 0.00 32 1014.5
20260902213205 100 143 4.0 8.0 0.00 0.00 0.00 32 1014.5
20260902213005 101 144 4.0 9.0 0.00 0.00 0.00 32 1014.5
20260902212905 101 146 4.0 9.0 0.00 0.00 0.00 32 1014.5
20260902212705 101 142 4.0 9.0 0.00 0.00 0.00 32 1014.5
20260902212504 100 150 4.0 14.0 0.00 0.00 0.00 33 1014.5
20260902212404 100 158 4.0 14.0 0.00 0.00 0.00 33 1014.6
20260902212306 100 157 5.0 14.0 0.00 0.00 0.00 33 1014.5
20260902212204 100 161 5.0 14.0 0.00 0.00 0.00 33 1014.5
20260902212104 100 165 5.0 14.0 0.00 0.00 0.00 33 1014.6
20260902211804 100 163 5.0 14.0 0.00 0.00 0.00 34 1014.6
20260902211704 100 163 5.0 14.0 0.00 0.00 0.00 34 1014.6
20260902211504 100 157 5.0 12.0 0.00 0.00 0.00 33 1014.7
20260902211404 100 151 4.0 12.0 0.00 0.00 0.00 34 1014.6
20260902211304 100 152 4.0 11.0 0.00 0.00 0.00 34 1014.7
20260902211004 100 155 5.0 16.0 0.00 0.00 0.00 33 1014.7
20260902210904 100 156 4.0 16.0 0.00 0.00 0.00 33 1014.7
20260902210804 100 154 5.0 16.0 0.00 0.00 0.00 32 1014.8
20260902210704 100 163 4.0 16.0 0.00 0.00 0.00 33 1014.8
20260902210604 100 161 5.0 16.0 0.00 0.00 0.00 33 1014.8
20260902210504 100 167 5.0 16.0 0.00 0.00 0.00 34 1014.8
20260902210404 100 172 5.0 16.0 0.00 0.00 0.00 33 1014.8
20260902210104 100 175 4.0 11.0 0.00 0.00 0.00 34 1014.8
20260902210005 100 181 5.0 13.0 0.00 0.00 0.00 34 1014.9
20260902205904 100 188 5.0 13.0 0.00 0.00 0.00 34 1014.9
20260902205804 100 193 5.0 13.0 0.00 0.00 0.00 34 1014.9
20260902205704 100 189 5.0 13.0 0.00 0.00 0.00 34 1014.9
20260902205504 100 192 5.0 15.0 0.00 0.00 0.00 34 1014.9
20260902205404 100 191 5.0 15.0 0.00 0.00 0.00 34 1014.9
20260902205005 100 187 5.0 15.0 0.00 0.00 0.00 35 1015.0
20260902204805 100 185 4.0 15.0 0.00 0.00 0.00 35 1015.0
20260902204705 100 188 4.0 15.0 0.00 0.00 0.00 35 1015.0
20260902204605 100 191 5.0 15.0 0.00 0.00 0.00 34 1015.1
20260902204505 100 188 4.0 14.0 0.00 0.00 0.00 35 1015.1
20260902204304 100 188 4.0 14.0 0.00 0.00 0.00 34 1015.1
20260902204005 100 189 3.0 14.0 0.00 0.00 0.00 35 1015.1
20260902203705 101 176 3.0 14.0 0.00 0.00 0.00 34 1015.0
20260902203605 101 171 3.0 14.0 0.00 0.00 0.00 35 1015.1
20260902203405 101 168 3.0 12.0 0.00 0.00 0.00 34 1015.1
20260902203305 101 165 3.0 12.0 0.00 0.00 0.00 35 1015.2
20260902203204 100 169 3.0 12.0 0.00 0.00 0.00 35 1015.2
20260902203104 100 170 4.0 12.0 0.00 0.00 0.00 35 1015.2
20260902203004 100 168 4.0 12.0 0.00 0.00 0.00 35 1015.3
20260902202904 100 167 5.0 11.0 0.00 0.00 0.00 35 1015.3
20260902202804 100 171 5.0 12.0 0.00 0.00 0.00 36 1015.3
20260902202705 100 176 5.0 12.0 0.00 0.00 0.00 35 1015.3
20260902202504 99 185 5.0 12.0 0.00 0.00 0.00 35 1015.3
20260902202404 99 183 5.0 12.0 0.00 0.00 0.00 35 1015.3
20260902202306 99 182 5.0 12.0 0.00 0.00 0.00 35 1015.4
20260902202204 99 179 5.0 12.0 0.00 0.00 0.00 35 1015.4
20260902202104 99 184 5.0 13.0 0.00 0.00 0.00 35 1015.4
20260902202004 100 191 5.0 13.0 0.00 0.00 0.00 35 1015.4
20260902201904 100 191 5.0 13.0 0.00 0.00 0.00 35 1015.3
20260902201804 100 189 5.0 13.0 0.00 0.00 0.00 34 1015.3
20260902201704 100 185 5.0 13.0 0.00 0.00 0.00 34 1015.4
20260902201604 100 182 5.0 13.0 0.00 0.00 0.00 35 1015.4
20260902201504 100 181 5.0 13.0 0.00 0.00 0.00 35 1015.4
20260902201404 100 182 5.0 13.0 0.00 0.00 0.00 34 1015.4
20260902201304 100 179 5.0 13.0 0.00 0.00 0.00 36 1015.5
20260902201204 100 186 5.0 13.0 0.00 0.00 0.00 36 1015.6
20260902201104 100 186 5.0 11.0 0.00 0.00 0.00 35 1015.4
20260902201004 100 186 5.0 11.0 0.00 0.00 0.00 35 1015.4
20260902200904 100 187 5.0 11.0 0.00 0.00 0.00 35 1015.4
20260902200804 100 187 5.0 11.0 0.00 0.00 0.00 35 1015.5
20260902200704 100 186 5.0 11.0 0.00 0.00 0.00 35 1015.5
20260902200604 100 185 5.0 11.0 0.00 0.00 0.00 35 1015.6
20260902200504 100 183 5.0 11.0 0.00 0.00 0.00 36 1015.6
20260902200404 100 177 4.0 10.0 0.00 0.00 0.00 36 1015.6
20260902200305 100 179 4.0 10.0 0.00 0.00 0.00 35 1015.5
20260902200104 100 159 4.0 10.0 0.00 0.00 0.00 35 1015.6
20260902200005 100 151 4.0 8.0 0.00 0.00 0.00 35 1015.6
20260902195804 100 153 4.0 9.0 0.00 0.00 0.00 35 1015.5
20260902195704 100 151 4.0 9.0 0.00 0.00 0.00 35 1015.5
20260902195604 100 148 4.0 9.0 0.00 0.00 0.00 35 1015.6
20260902195504 100 147 4.0 9.0 0.00 0.00 0.00 36 1015.6
20260902195404 100 145 4.0 9.0 0.00 0.00 0.00 35 1015.7
20260902195306 100 146 4.0 9.0 0.00 0.00 0.00 35 1015.7
20260902195204 100 151 5.0 11.0 0.00 0.00 0.00 36 1015.7
20260902195004 100 157 5.0 15.0 0.00 0.00 0.00 35 1015.6
20260902194904 100 150 5.0 15.0 0.00 0.00 0.00 35 1015.7
20260902194804 99 152 5.0 15.0 0.00 0.00 0.00 35 1015.7
20260902194505 99 169 5.0 15.0 0.00 0.00 0.00 34 1015.8
20260902194305 99 175 5.0 15.0 0.00 0.00 0.00 35 1015.8
20260902194204 99 178 5.0 15.0 0.00 0.00 0.00 35 1015.8
20260902194104 98 186 5.0 13.0 0.00 0.00 0.00 35 1015.8
20260902194004 98 187 5.0 13.0 0.00 0.00 0.00 36 1015.8
20260902193904 98 188 5.0 13.0 0.00 0.00 0.00 37 1015.8
20260902193804 99 187 5.0 13.0 0.00 0.00 0.00 36 1015.8
20260902193704 99 183 5.0 13.0 0.00 0.00 0.00 37 1015.8
20260902193604 99 177 5.0 13.0 0.00 0.00 0.00 36 1015.9
20260902193505 99 171 5.0 13.0 0.00 0.00 0.00 36 1016.0
20260902193404 99 169 5.0 13.0 0.00 0.00 0.00 37 1015.9
20260902193304 99 168 5.0 13.0 0.00 0.00 0.00 36 1015.9
20260902193205 99 161 4.0 12.0 0.00 0.00 0.00 35 1016.0
20260902193105 99 153 4.0 12.0 0.00 0.00 0.00 35 1015.9
20260902193005 99 154 4.0 12.0 0.00 0.00 0.00 35 1015.9
20260902192905 99 157 4.0 12.0 0.00 0.00 0.00 36 1016.0
20260902192805 99 163 5.0 15.0 0.00 0.00 0.00 36 1016.0
20260902192705 99 165 5.0 15.0 0.00 0.00 0.00 35 1015.9
20260902192605 99 166 5.0 15.0 0.00 0.00 0.00 35 1015.9
20260902192505 99 168 5.0 15.0 0.00 0.00 0.00 35 1016.0
20260902192404 99 164 5.0 15.0 0.00 0.00 0.00 35 1016.1
20260902192307 99 163 6.0 15.0 0.00 0.00 0.00 37 1016.1
20260902192104 99 174 6.0 16.0 0.00 0.00 0.00 36 1016.1
20260902192005 99 171 6.0 16.0 0.00 0.00 0.00 36 1016.1
20260902191905 99 169 6.0 16.0 0.00 0.00 0.00 36 1016.1
20260902191804 99 169 5.0 16.0 0.00 0.00 0.00 36 1016.1
20260902191705 99 170 5.0 16.0 0.00 0.00 0.00 36 1016.1
20260902191604 99 173 5.0 16.0 0.00 0.00 0.00 37 1016.1
20260902191505 99 173 5.0 16.0 0.00 0.00 0.00 37 1016.1
20260902191404 99 177 5.0 16.0 0.00 0.00 0.00 36 1016.1
20260902191304 99 177 5.0 16.0 0.00 0.00 0.00 36 1016.1
20260902191204 99 169 5.0 13.0 0.00 0.00 0.00 36 1016.2
20260902191104 99 165 5.0 13.0 0.00 0.00 0.00 36 1016.2
20260902191004 99 166 5.0 13.0 0.00 0.00 0.00 36 1016.2
20260902190904 99 170 5.0 13.0 0.00 0.00 0.00 36 1016.2
20260902190804 99 169 5.0 13.0 0.00 0.00 0.00 36 1016.2
20260902190704 99 165 5.0 13.0 0.00 0.00 0.00 37 1016.3
20260902190604 99 165 5.0 13.0 0.00 0.00 0.00 36 1016.2
20260902190504 99 162 5.0 13.0 0.00 0.00 0.00 36 1016.3
20260902190404 99 160 5.0 13.0 0.00 0.00 0.00 36 1016.3
20260902190204 100 159 4.0 11.0 0.00 0.00 0.00 36 1016.2
20260902190104 100 160 4.0 11.0 0.00 0.00 0.00 35 1016.4
20260902190005 100 162 4.0 11.0 0.00 0.00 0.00 35 1016.4
20260902185905 100 157 4.0 8.0 0.00 0.00 0.00 36 1016.4
20260902185805 100 156 4.0 8.0 0.00 0.00 0.00 36 1016.5
20260902185705 100 161 4.0 9.0 0.00 0.00 0.00 36 1016.5
20260902185605 100 168 5.0 13.0 0.00 0.00 0.00 36 1016.5
20260902185505 100 175 5.0 13.0 0.00 0.00 0.00 36 1016.5
20260902185307 99 176 5.0 13.0 0.00 0.00 0.00 37 1016.5
20260902185205 99 176 5.0 13.0 0.00 0.00 0.00 37 1016.6
20260902185104 99 172 5.0 13.0 0.00 0.00 0.00 37 1016.6
20260902185004 99 171 5.0 13.0 0.00 0.00 0.00 37 1016.6
20260902184905 99 175 6.0 13.0 0.00 0.00 0.00 37 1016.6
20260902184805 99 178 6.0 16.0 0.00 0.00 0.00 37 1016.6
20260902184705 99 183 6.0 16.0 0.00 0.00 0.00 37 1016.6
20260902184605 99 182 6.0 16.0 0.00 0.00 0.00 37 1016.7
20260902184504 99 177 6.0 16.0 0.00 0.00 0.00 37 1016.7
20260902184304 98 177 6.0 16.0 0.00 0.00 0.00 37 1016.7
20260902184204 98 176 6.0 16.0 0.00 0.00 0.00 37 1016.8
20260902184104 98 179 5.0 16.0 0.00 0.00 0.00 37 1016.8
20260902184004 99 183 5.0 16.0 0.00 0.00 0.00 36 1016.8
20260902183905 99 182 5.0 16.0 0.00 0.00 0.00 36 1016.8
20260902183805 99 184 5.0 13.0 0.00 0.00 0.00 36 1016.9
20260902183705 99 181 5.0 14.0 0.00 0.00 0.00 37 1016.9
20260902183604 99 178 5.0 14.0 0.00 0.00 0.00 37 1016.9
20260902183504 99 184 5.0 14.0 0.00 0.00 0.00 37 1016.9
20260902183205 98 191 4.0 14.0 0.00 0.00 0.00 39 1016.9
20260902183105 98 195 5.0 14.0 0.00 0.00 0.00 38 1016.9
20260902183004 98 191 5.0 14.0 0.00 0.00 0.00 38 1017.0
20260902182904 98 186 5.0 14.0 0.00 0.00 0.00 38 1017.0
20260902182805 98 182 5.0 14.0 0.00 0.00 0.00 39 1017.0
20260902182604 98 183 5.0 13.0 0.00 0.00 0.00 38 1017.0
20260902182504 98 183 5.0 13.0 0.00 0.00 0.00 38 1017.0
20260902182404 98 184 5.0 13.0 0.00 0.00 0.00 38 1017.0
20260902182306 98 185 6.0 14.0 0.00 0.00 0.00 38 1017.0
20260902182205 98 184 6.0 14.0 0.00 0.00 0.00 37 1017.1
20260902182104 98 178 6.0 14.0 0.00 0.00 0.00 37 1017.0
20260902181904 98 178 6.0 14.0 0.00 0.00 0.00 39 1017.2
20260902181704 97 178 6.0 14.0 0.00 0.00 0.00 40 1017.2
20260902181604 97 181 6.0 14.0 0.00 0.00 0.00 39 1017.2
20260902181504 97 175 6.0 14.0 0.00 0.00 0.00 40 1017.2
20260902181404 97 168 6.0 14.0 0.00 0.00 0.00 39 1017.2
20260902181305 97 164 6.0 12.0 0.00 0.00 0.00 39 1017.2
20260902181204 97 159 5.0 12.0 0.00 0.00 0.00 39 1017.2
20260902181105 97 163 6.0 12.0 0.00 0.00 0.00 40 1017.3
20260902181005 97 170 6.0 15.0 0.00 0.00 0.00 40 1017.2
20260902180804 97 171 6.0 15.0 0.00 0.00 0.00 40 1017.3
20260902180705 97 171 6.0 15.0 0.00 0.00 0.00 39 1017.3
20260902180504 97 173 6.0 15.0 0.00 0.00 0.00 40 1017.2
20260902180305 97 186 6.0 15.0 0.00 0.00 0.00 40 1017.3
20260902180205 97 190 6.0 15.0 0.00 0.00 0.00 40 1017.3
20260902180105 97 191 5.0 15.0 0.00 0.00 0.00 40 1017.3
20260902180007 97 186 5.0 12.0 0.00 0.00 0.00 41 1017.3
20260902175905 97 186 5.0 12.0 0.00 0.00 0.00 42 1017.3
20260902175705 97 188 6.0 13.0 0.00 0.00 0.00 42 1017.4
20260902175604 96 190 6.0 13.0 0.00 0.00 0.00 42 1017.3
20260902175405 96 190 6.0 13.0 0.00 0.00 0.00 41 1017.3
20260902175307 96 188 6.0 13.0 0.00 0.00 0.00 42 1017.4
20260902175105 96 187 6.0 13.0 0.00 0.00 0.00 42 1017.4
20260902175005 96 189 6.0 13.0 0.00 0.00 0.00 41 1017.3
20260902174905 96 190 6.0 14.0 0.00 0.00 0.00 41 1017.3
20260902174805 96 189 6.0 14.0 0.00 0.00 0.00 41 1017.4
20260902174705 96 187 6.0 14.0 0.00 0.00 0.00 41 1017.4
20260902174605 96 184 6.0 14.0 0.00 0.00 0.00 41 1017.5
20260902174505 96 182 6.0 14.0 0.00 0.00 0.00 42 1017.4
20260902174405 96 184 6.0 14.0 0.00 0.00 0.00 42 1017.4
20260902174305 96 183 6.0 14.0 0.00 0.00 0.00 42 1017.5
20260902174205 96 181 6.0 14.0 0.00 0.00 0.00 42 1017.5
20260902174105 96 181 7.0 14.0 0.00 0.00 0.00 42 1017.5
20260902174005 96 181 7.0 18.0 0.00 0.00 0.00 42 1017.4
20260902173905 96 179 7.0 18.0 0.00 0.00 0.00 42 1017.4
20260902173805 96 178 6.0 18.0 0.00 0.00 0.00 41 1017.4
20260902173704 96 177 6.0 18.0 0.00 0.00 0.00 41 1017.4
20260902173605 96 178 6.0 18.0 0.00 0.00 0.00 41 1017.4
20260902173505 96 178 6.0 18.0 0.00 0.00 0.00 42 1017.5
20260902173405 96 176 6.0 18.0 0.00 0.00 0.00 42 1017.5
20260902173305 96 173 6.0 18.0 0.00 0.00 0.00 42 1017.4
20260902173205 96 172 5.0 18.0 0.00 0.00 0.00 41 1017.5
20260902173105 96 176 5.0 18.0 0.00 0.00 0.00 41 1017.5
20260902173005 96 176 5.0 13.0 0.00 0.00 0.00 41 1017.5
20260902172804 96 178 5.0 13.0 0.00 0.00 0.00 42 1017.6
20260902172704 96 175 5.0 12.0 0.00 0.00 0.00 42 1017.6
20260902172604 96 168 5.0 12.0 0.00 0.00 0.00 42 1017.7
20260902172505 96 163 5.0 12.0 0.00 0.00 0.00 42 1017.6
20260902172308 96 168 5.0 12.0 0.00 0.00 0.00 43 1017.7
20260902172205 96 174 5.0 12.0 0.00 0.00 0.00 42 1017.6
20260902172105 96 170 5.0 12.0 0.00 0.00 0.00 43 1017.7
20260902171904 95 169 5.0 11.0 0.00 0.00 0.00 43 1017.7
20260902171804 95 167 5.0 11.0 0.00 0.00 0.00 42 1017.6
20260902171704 95 174 5.0 11.0 0.00 0.00 0.00 43 1017.6
20260902171604 95 185 6.0 14.0 0.00 0.00 0.00 44 1017.7
20260902171504 95 187 6.0 14.0 0.00 0.00 0.00 44 1017.7
20260902171404 95 188 6.0 14.0 0.00 0.00 0.00 44 1017.7
20260902171304 95 188 6.0 14.0 0.00 0.00 0.00 43 1017.7
20260902171104 95 183 6.0 14.0 0.00 0.00 0.00 43 1017.8
20260902171004 95 178 6.0 14.0 0.00 0.00 0.00 44 1017.8
20260902170904 95 176 6.0 14.0 0.00 0.00 0.00 44 1017.8
20260902170704 95 175 5.0 14.0 0.00 0.00 0.00 44 1017.8
20260902170604 95 175 5.0 12.0 0.00 0.00 0.00 43 1017.9
20260902170504 95 175 5.0 12.0 0.00 0.00 0.00 44 1017.9
20260902170304 95 179 5.0 15.0 0.00 0.00 0.00 44 1017.9
20260902170204 95 182 5.0 15.0 0.00 0.00 0.00 44 1017.9
20260902170104 94 183 6.0 15.0 0.00 0.00 0.00 44 1017.9
20260902170004 94 183 6.0 15.0 0.00 0.00 0.00 45 1018.0
20260902165904 94 189 6.0 15.0 0.00 0.00 0.00 45 1017.9
20260902165804 94 192 6.0 15.0 0.00 0.00 0.00 45 1017.9
20260902165704 94 193 6.0 15.0 0.00 0.00 0.00 44 1017.9
20260902165604 94 194 6.0 15.0 0.00 0.00 0.00 45 1018.0
20260902165504 94 197 6.0 15.0 0.00 0.00 0.00 44 1018.0
20260902165404 94 200 6.0 15.0 0.00 0.00 0.00 45 1017.9
20260902165308 94 201 6.0 13.0 0.00 0.00 0.00 45 1018.0
20260902165204 94 202 6.0 14.0 0.00 0.00 0.00 44 1018.0
20260902165104 94 205 6.0 14.0 0.00 0.00 0.00 45 1018.0
20260902165004 94 208 6.0 14.0 0.00 0.00 0.00 45 1018.0
20260902164904 94 206 6.0 14.0 0.00 0.00 0.00 46 1018.0
20260902164804 94 204 6.0 14.0 0.00 0.00 0.00 45 1018.1
20260902164704 94 202 6.0 14.0 0.00 0.00 0.00 45 1018.0
20260902164604 94 200 6.0 14.0 0.00 0.00 0.00 45 1018.1
20260902164504 94 196 5.0 14.0 0.00 0.00 0.00 45 1018.1
20260902164404 94 191 5.0 14.0 0.00 0.00 0.00 45 1018.1
20260902164204 94 187 5.0 13.0 0.00 0.00 0.00 46 1018.1
20260902164104 94 183 5.0 12.0 0.00 0.00 0.00 46 1018.1
20260902164004 94 183 5.0 12.0 0.00 0.00 0.00 46 1018.1
20260902163904 94 188 5.0 12.0 0.00 0.00 0.00 46 1018.2
20260902163804 94 188 5.0 12.0 0.00 0.00 0.00 46 1018.1
20260902163604 93 189 5.0 12.0 0.00 0.00 0.00 46 1018.2
20260902163504 93 189 5.0 12.0 0.00 0.00 0.00 47 1018.2
20260902163404 93 188 5.0 12.0 0.00 0.00 0.00 47 1018.2
20260902163304 93 189 5.0 12.0 0.00 0.00 0.00 46 1018.2
20260902163204 93 186 5.0 11.0 0.00 0.00 0.00 46 1018.3
20260902163104 93 188 5.0 11.0 0.00 0.00 0.00 46 1018.3
20260902163004 93 186 5.0 11.0 0.00 0.00 0.00 47 1018.3
20260902162904 93 182 5.0 10.0 0.00 0.00 0.00 47 1018.3
20260902162804 93 182 5.0 11.0 0.00 0.00 0.00 47 1018.2
20260902162604 93 178 5.0 11.0 0.00 0.00 0.00 47 1018.3
20260902162404 93 186 5.0 11.0 0.00 0.00 0.00 47 1018.3
20260902162307 93 188 5.0 11.0 0.00 0.00 0.00 47 1018.3
20260902162204 92 192 5.0 12.0 0.00 0.00 0.00 47 1018.3
20260902162104 92 189 5.0 12.0 0.00 0.00 0.00 47 1018.3
20260902161904 92 186 5.0 12.0 0.00 0.00 0.00 47 1018.4
20260902161804 92 191 5.0 16.0 0.00 0.00 0.00 48 1018.3
20260902161605 92 194 6.0 16.0 0.00 0.00 0.00 48 1018.4
20260902161504 92 194 6.0 16.0 0.00 0.00 0.00 48 1018.4
20260902161404 92 192 6.0 16.0 0.00 0.00 0.00 48 1018.4
20260902161304 92 191 6.0 16.0 0.00 0.00 0.00 48 1018.4
20260902161204 92 187 6.0 16.0 0.00 0.00 0.00 48 1018.4
20260902161104 92 187 6.0 16.0 0.00 0.00 0.00 48 1018.4
20260902161004 92 187 6.0 16.0 0.00 0.00 0.00 48 1018.4
20260902160904 92 190 7.0 16.0 0.00 0.00 0.00 48 1018.4
20260902160804 92 184 6.0 15.0 0.00 0.00 0.00 47 1018.3
20260902160404 92 171 5.0 12.0 0.00 0.00 0.00 49 1018.4
20260902160304 92 168 5.0 12.0 0.00 0.00 0.00 48 1018.4
20260902160204 92 167 5.0 12.0 0.00 0.00 0.00 48 1018.4
20260902160007 92 168 5.0 12.0 0.00 0.00 0.00 49 1018.4
20260902155804 91 167 5.0 12.0 0.00 0.00 0.00 49 1018.4
20260902155705 91 169 5.0 12.0 0.00 0.00 0.00 49 1018.4
20260902155605 91 167 4.0 12.0 0.00 0.00 0.00 49 1018.4
20260902155505 91 170 4.0 12.0 0.00 0.00 0.00 50 1018.4
20260902155205 91 176 4.0 12.0 0.00 0.00 0.00 50 1018.4
20260902155005 90 176 4.0 12.0 0.00 0.00 0.00 50 1018.4
20260902154905 90 174 4.0 12.0 0.00 0.00 0.00 50 1018.4
20260902154805 90 175 4.0 10.0 0.00 0.00 0.00 51 1018.4
20260902154705 90 177 4.0 10.0 0.00 0.00 0.00 51 1018.4
20260902154605 90 182 4.0 10.0 0.00 0.00 0.00 51 1018.4
20260902154505 90 185 4.0 10.0 0.00 0.00 0.00 51 1018.4
20260902154404 90 185 5.0 10.0 0.00 0.00 0.00 52 1018.4
20260902154304 90 185 5.0 10.0 0.00 0.00 0.00 51 1018.4
20260902154205 90 184 5.0 10.0 0.00 0.00 0.00 51 1018.4
20260902154105 90 186 5.0 15.0 0.00 0.00 0.00 51 1018.4
20260902154005 90 185 5.0 15.0 0.00 0.00 0.00 52 1018.4
20260902153905 89 185 5.0 15.0 0.00 0.00 0.00 52 1018.4
20260902153804 89 187 6.0 15.0 0.00 0.00 0.00 52 1018.4
20260902153704 89 189 6.0 15.0 0.00 0.00 0.00 52 1018.4
20260902153504 89 186 6.0 15.0 0.00 0.00 0.00 51 1018.4
20260902153304 89 191 6.0 15.0 0.00 0.00 0.00 52 1018.4
20260902153205 89 191 6.0 15.0 0.00 0.00 0.00 52 1018.4
20260902152905 89 194 5.0 14.0 0.00 0.00 0.00 52 1018.4
20260902152805 89 190 5.0 14.0 0.00 0.00 0.00 52 1018.4
20260902152705 89 187 4.0 14.0 0.00 0.00 0.00 52 1018.4
20260902152605 89 187 4.0 14.0 0.00 0.00 0.00 52 1018.4
20260902152505 89 186 4.0 14.0 0.00 0.00 0.00 52 1018.3
20260902152405 89 184 4.0 14.0 0.00 0.00 0.00 52 1018.4
20260902152205 89 179 4.0 12.0 0.00 0.00 0.00 52 1018.4
20260902152105 89 179 4.0 11.0 0.00 0.00 0.00 53 1018.4
20260902152005 89 181 4.0 11.0 0.00 0.00 0.00 53 1018.4
20260902151905 89 179 4.0 11.0 0.00 0.00 0.00 54 1018.4
20260902151805 88 181 4.0 11.0 0.00 0.00 0.00 54 1018.4
20260902151605 88 182 5.0 11.0 0.00 0.00 0.00 54 1018.4
20260902151405 88 179 5.0 11.0 0.00 0.00 0.00 54 1018.4
20260902151304 88 182 5.0 11.0 0.00 0.00 0.00 54 1018.4
20260902151204 88 181 5.0 11.0 0.00 0.00 0.00 54 1018.4
20260902151104 88 179 5.0 11.0 0.00 0.00 0.00 54 1018.3
20260902151004 88 177 4.0 11.0 0.00 0.00 0.00 53 1018.4
20260902150604 87 188 5.0 11.0 0.00 0.00 0.00 54 1018.3
20260902150404 87 187 5.0 11.0 0.00 0.00 0.00 54 1018.3
20260902150304 87 183 4.0 11.0 0.00 0.00 0.00 55 1018.4
20260902150204 87 185 4.0 11.0 0.00 0.00 0.00 55 1018.3
20260902150005 87 188 5.0 11.0 0.00 0.00 0.00 56 1018.4
20260902145905 87 188 5.0 11.0 0.00 0.00 0.00 56 1018.4
20260902145805 87 189 5.0 11.0 0.00 0.00 0.00 55 1018.3
20260902145705 87 186 5.0 11.0 0.00 0.00 0.00 55 1018.4
20260902145605 87 181 5.0 11.0 0.00 0.00 0.00 55 1018.4
20260902145505 86 182 5.0 11.0 0.00 0.00 0.00 55 1018.3
20260902145405 86 183 4.0 11.0 0.00 0.00 0.00 56 1018.4
20260902145306 86 184 4.0 11.0 0.00 0.00 0.00 56 1018.3
20260902145205 86 181 4.0 11.0 0.00 0.00 0.00 55 1018.4
20260902145105 86 181 4.0 11.0 0.00 0.00 0.00 56 1018.3
20260902145005 86 176 3.0 8.0 0.00 0.00 0.00 56 1018.3
20260902144905 86 174 3.0 8.0 0.00 0.00 0.00 56 1018.3
20260902144804 86 170 3.0 8.0 0.00 0.00 0.00 56 1018.3
20260902144704 86 171 3.0 8.0 0.00 0.00 0.00 56 1018.3
20260902144604 86 171 3.0 8.0 0.00 0.00 0.00 56 1018.4
20260902144504 86 168 3.0 6.0 0.00 0.00 0.00 57 1018.3
20260902144404 86 169 3.0 8.0 0.00 0.00 0.00 57 1018.3
20260902144204 86 181 4.0 13.0 0.00 0.00 0.00 57 1018.3
20260902144004 85 181 4.0 13.0 0.00 0.00 0.00 57 1018.3
20260902143904 85 181 4.0 13.0 0.00 0.00 0.00 57 1018.4
20260902143804 85 182 4.0 13.0 0.00 0.00 0.00 58 1018.4
20260902143704 85 179 4.0 13.0 0.00 0.00 0.00 58 1018.4
20260902143604 85 179 4.0 13.0 0.00 0.00 0.00 58 1018.4
20260902143504 85 181 4.0 13.0 0.00 0.00 0.00 57 1018.3
20260902143404 85 182 4.0 13.0 0.00 0.00 0.00 57 1018.3
20260902143304 85 182 3.0 13.0 0.00 0.00 0.00 57 1018.3
20260902143104 85 175 3.0 8.0 0.00 0.00 0.00 58 1018.4
20260902142904 84 179 4.0 8.0 0.00 0.00 0.00 59 1018.4
20260902142804 84 182 4.0 8.0 0.00 0.00 0.00 58 1018.3
20260902142705 84 184 3.0 8.0 0.00 0.00 0.00 58 1018.3
20260902142605 84 186 3.0 8.0 0.00 0.00 0.00 59 1018.4
20260902142404 84 190 3.0 8.0 0.00 0.00 0.00 59 1018.3
20260902142306 84 187 3.0 8.0 0.00 0.00 0.00 60 1018.4
20260902142204 84 188 3.0 8.0 0.00 0.00 0.00 59 1018.4
20260902142104 84 189 3.0 8.0 0.00 0.00 0.00 59 1018.3
20260902142004 84 186 3.0 8.0 0.00 0.00 0.00 59 1018.3
20260902141904 84 188 3.0 10.0 0.00 0.00 0.00 60 1018.4
20260902141804 84 187 3.0 10.0 0.00 0.00 0.00 60 1018.4
20260902141604 83 182 3.0 10.0 0.00 0.00 0.00 60 1018.3
20260902141504 83 179 3.0 10.0 0.00 0.00 0.00 60 1018.3
20260902141304 83 179 3.0 10.0 0.00 0.00 0.00 60 1018.3
20260902141204 83 176 3.0 10.0 0.00 0.00 0.00 61 1018.3
20260902141104 83 175 3.0 10.0 0.00 0.00 0.00 60 1018.3
20260902140905 83 167 3.0 9.0 0.00 0.00 0.00 61 1018.4
20260902140804 83 167 3.0 9.0 0.00 0.00 0.00 60 1018.3
20260902140704 83 167 3.0 9.0 0.00 0.00 0.00 60 1018.3
20260902140604 83 168 3.0 9.0 0.00 0.00 0.00 60 1018.3
20260902140304 82 160 3.0 6.0 0.00 0.00 0.00 61 1018.3
20260902140204 82 161 2.0 6.0 0.00 0.00 0.00 61 1018.3
20260902140104 82 163 2.0 6.0 0.00 0.00 0.00 61 1018.3
20260902140004 82 163 2.0 6.0 0.00 0.00 0.00 61 1018.3
20260902135904 82 167 2.0 7.0 0.00 0.00 0.00 61 1018.3
20260902135804 82 166 2.0 7.0 0.00 0.00 0.00 62 1018.3
20260902135704 82 164 2.0 7.0 0.00 0.00 0.00 62 1018.3
20260902135604 82 166 2.0 7.0 0.00 0.00 0.00 62 1018.3
20260902135504 82 164 2.0 7.0 0.00 0.00 0.00 62 1018.3
20260902135404 81 167 3.0 7.0 0.00 0.00 0.00 62 1018.3
20260902135306 81 166 2.0 7.0 0.00 0.00 0.00 63 1018.3
20260902135204 81 167 2.0 7.0 0.00 0.00 0.00 63 1018.3
20260902135104 81 165 2.0 7.0 0.00 0.00 0.00 63 1018.3
20260902135004 81 166 2.0 7.0 0.00 0.00 0.00 62 1018.3
20260902134904 81 158 2.0 6.0 0.00 0.00 0.00 63 1018.3
20260902134804 81 158 2.0 6.0 0.00 0.00 0.00 63 1018.2
20260902134704 81 155 2.0 6.0 0.00 0.00 0.00 63 1018.3
20260902134604 81 154 2.0 6.0 0.00 0.00 0.00 63 1018.3
20260902134504 80 159 2.0 6.0 0.00 0.00 0.00 63 1018.3
20260902134404 80 156 2.0 6.0 0.00 0.00 0.00 63 1018.3
20260902134204 80 155 2.0 6.0 0.00 0.00 0.00 64 1018.2
20260902134104 80 156 2.0 6.0 0.00 0.00 0.00 64 1018.2
20260902134004 80 155 2.0 6.0 0.00 0.00 0.00 64 1018.2
20260902133904 80 154 2.0 6.0 0.00 0.00 0.00 64 1018.3
20260902133804 80 154 2.0 6.0 0.00 0.00 0.00 64 1018.2
20260902133704 80 154 1.0 6.0 0.00 0.00 0.00 64 1018.2
20260902133404 79 146 1.0 3.0 0.00 0.00 0.00 65 1018.2
20260902133304 79 148 1.0 3.0 0.00 0.00 0.00 65 1018.2
20260902133204 79 145 1.0 3.0 0.00 0.00 0.00 65 1018.2
20260902133004 79 147 1.0 3.0 0.00 0.00 0.00 65 1018.2
20260902132904 79 149 1.0 3.0 0.00 0.00 0.00 66 1018.2
20260902132805 79 152 1.0 3.0 0.00 0.00 0.00 66 1018.2
20260902132704 79 152 1.0 3.0 0.00 0.00 0.00 66 1018.2
20260902132605 79 151 1.0 3.0 0.00 0.00 0.00 66 1018.2
20260902132504 78 154 1.0 3.0 0.00 0.00 0.00 66 1018.2
20260902132306 78 150 1.0 3.0 0.00 0.00 0.00 66 1018.2
20260902132204 78 152 1.0 3.0 0.00 0.00 0.00 66 1018.3
20260902132104 78 154 1.0 4.0 0.00 0.00 0.00 66 1018.3
20260902132004 78 153 1.0 4.0 0.00 0.00 0.00 66 1018.2
20260902131804 78 157 1.0 4.0 0.00 0.00 0.00 67 1018.2
20260902131704 78 158 1.0 4.0 0.00 0.00 0.00 66 1018.3
20260902131604 78 157 1.0 4.0 0.00 0.00 0.00 66 1018.3
20260902131504 78 157 1.0 4.0 0.00 0.00 0.00 67 1018.2
20260902131404 78 157 1.0 4.0 0.00 0.00 0.00 67 1018.3
20260902131304 78 160 1.0 4.0 0.00 0.00 0.00 67 1018.2
20260902131204 77 159 1.0 4.0 0.00 0.00 0.00 67 1018.2
20260902131104 77 159 1.0 4.0 0.00 0.00 0.00 67 1018.3
20260902130604 77 153 0.0 2.0 0.00 0.00 0.00 68 1018.2
20260902130404 77 154 0.0 2.0 0.00 0.00 0.00 68 1018.2
20260902130305 77 156 0.0 2.0 0.00 0.00 0.00 68 1018.3
20260902130204 77 155 0.0 2.0 0.00 0.00 0.00 68 1018.2
20260902130104 77 154 0.0 2.0 0.00 0.00 0.00 68 1018.2
20260902130005 76 154 0.0 2.0 0.00 0.00 0.00 68 1018.2
20260902125905 76 153 0.0 2.0 0.00 0.00 0.00 68 1018.3
20260902125804 76 153 0.0 2.0 0.00 0.00 0.00 68 1018.3
20260902125705 76 150 0.0 3.0 0.00 0.00 0.00 68 1018.2
20260902125504 76 149 1.0 3.0 0.00 0.00 0.00 69 1018.2
20260902125404 76 148 1.0 3.0 0.00 0.00 0.00 69 1018.2
20260902125306 76 147 1.0 3.0 0.00 0.00 0.00 69 1018.2
20260902125204 76 146 1.0 3.0 0.00 0.00 0.00 69 1018.2
20260902125104 76 146 1.0 3.0 0.00 0.00 0.00 69 1018.1
20260902125004 76 144 1.0 3.0 0.00 0.00 0.00 69 1018.1
20260902124904 76 143 0.0 3.0 0.00 0.00 0.00 69 1018.1
20260902124804 76 143 0.0 3.0 0.00 0.00 0.00 69 1018.1
20260902124704 75 143 1.0 2.0 0.00 0.00 0.00 69 1018.1
20260902124604 75 143 1.0 2.0 0.00 0.00 0.00 70 1018.1
20260902124404 75 143 1.0 3.0 0.00 0.00 0.00 70 1018.1
20260902124304 75 144 1.0 3.0 0.00 0.00 0.00 70 1018.1
20260902124104 75 144 0.0 3.0 0.00 0.00 0.00 70 1018.1
20260902124004 75 143 0.0 3.0 0.00 0.00 0.00 70 1018.1
20260902123904 75 143 0.0 3.0 0.00 0.00 0.00 70 1018.1
20260902123804 75 143 0.0 3.0 0.00 0.00 0.00 70 1018.1
20260902123704 74 143 0.0 3.0 0.00 0.00 0.00 70 1018.0
20260902123604 74 144 0.0 3.0 0.00 0.00 0.00 70 1018.0
20260902123504 74 145 0.0 3.0 0.00 0.00 0.00 70 1018.0
20260902123304 74 140 0.0 2.0 0.00 0.00 0.00 70 1018.0
20260902123204 74 139 0.0 2.0 0.00 0.00 0.00 70 1018.0
20260902123104 74 139 0.0 2.0 0.00 0.00 0.00 70 1018.0
20260902123005 74 138 0.0 1.0 0.00 0.00 0.00 70 1018.0
20260902122904 74 138 0.0 1.0 0.00 0.00 0.00 70 1018.0
20260902122704 74 149 0.0 4.0 0.00 0.00 0.00 70 1018.0
20260902122605 74 150 0.0 4.0 0.00 0.00 0.00 70 1018.0
20260902122504 74 149 0.0 4.0 0.00 0.00 0.00 70 1018.0
20260902122405 74 150 0.0 4.0 0.00 0.00 0.00 70 1017.9
20260902122305 74 149 0.0 4.0 0.00 0.00 0.00 70 1017.9
20260902122204 74 151 0.0 4.0 0.00 0.00 0.00 70 1018.0
20260902122104 74 153 0.0 4.0 0.00 0.00 0.00 70 1017.9
20260902122004 74 152 0.0 4.0 0.00 0.00 0.00 70 1017.9
20260902121904 74 154 0.0 4.0 0.00 0.00 0.00 70 1017.9
20260902121804 74 146 0.0 1.0 0.00 0.00 0.00 70 1017.9
20260902121704 74 146 0.0 2.0 0.00 0.00 0.00 70 1017.9
20260902121504 74 147 0.0 2.0 0.00 0.00 0.00 70 1017.8
20260902121404 74 149 0.0 3.0 0.00 0.00 0.00 70 1017.8
20260902121304 74 148 0.0 3.0 0.00 0.00 0.00 70 1017.7
20260902121204 74 148 0.0 3.0 0.00 0.00 0.00 70 1017.8
20260902121104 74 147 0.0 3.0 0.00 0.00 0.00 70 1017.7
20260902121004 74 144 0.0 3.0 0.00 0.00 0.00 70 1017.7
20260902120904 74 143 0.0 3.0 0.00 0.00 0.00 70 1017.7
20260902120804 74 140 0.0 3.0 0.00 0.00 0.00 70 1017.7
20260902120704 74 143 0.0 3.0 0.00 0.00 0.00 70 1017.8
20260902120304 74 141 0.0 3.0 0.00 0.00 0.00 70 1017.8
20260902115904 74 149 1.0 4.0 0.00 0.00 0.00 69 1017.7
20260902115804 74 152 0.0 4.0 0.00 0.00 0.00 69 1017.7
20260902115704 74 153 0.0 4.0 0.00 0.00 0.00 69 1017.7
20260902115604 75 153 1.0 4.0 0.00 0.00 0.00 69 1017.7
20260902115504 74 155 0.0 4.0 0.00 0.00 0.00 69 1017.7
20260902115404 75 153 0.0 4.0 0.00 0.00 0.00 69 1017.7
20260902115307 75 155 0.0 4.0 0.00 0.00 0.00 69 1017.7
20260902115204 75 155 0.0 4.0 0.00 0.00 0.00 69 1017.7
20260902114904 75 151 0.0 2.0 0.00 0.00 0.00 69 1017.6
20260902114804 75 150 0.0 2.0 0.00 0.00 0.00 69 1017.6
20260902114704 75 150 0.0 2.0 0.00 0.00 0.00 69 1017.6
20260902114604 75 149 0.0 2.0 0.00 0.00 0.00 69 1017.6
20260902114504 75 150 0.0 2.0 0.00 0.00 0.00 69 1017.6
20260902114404 75 152 0.0 2.0 0.00 0.00 0.00 69 1017.6
20260902114304 75 153 1.0 2.0 0.00 0.00 0.00 69 1017.7
20260902114204 75 152 1.0 3.0 0.00 0.00 0.00 68 1017.6
20260902114104 75 149 1.0 3.0 0.00 0.00 0.00 68 1017.6
20260902114004 75 149 1.0 3.0 0.00 0.00 0.00 68 1017.6
20260902113904 75 149 1.0 3.0 0.00 0.00 0.00 68 1017.6
20260902113804 75 149 1.0 3.0 0.00 0.00 0.00 68 1017.6
20260902113704 75 149 1.0 3.0 0.00 0.00 0.00 68 1017.6
20260902113604 75 148 1.0 3.0 0.00 0.00 0.00 68 1017.5
20260902113504 75 148 1.0 3.0 0.00 0.00 0.00 68 1017.6
20260902113404 75 147 0.0 3.0 0.00 0.00 0.00 68 1017.6
20260902113304 75 145 0.0 3.0 0.00 0.00 0.00 68 1017.6
20260902113204 75 143 0.0 3.0 0.00 0.00 0.00 68 1017.6
20260902113104 75 144 0.0 2.0 0.00 0.00 0.00 68 1017.6
20260902113004 75 145 0.0 2.0 0.00 0.00 0.00 68 1017.6
20260902112905 75 148 0.0 2.0 0.00 0.00 0.00 68 1017.5
20260902112805 75 151 0.0 2.0 0.00 0.00 0.00 68 1017.5
20260902112705 75 153 1.0 2.0 0.00 0.00 0.00 68 1017.5
20260902112605 75 158 1.0 3.0 0.00 0.00 0.00 68 1017.5
20260902112404 75 160 1.0 3.0 0.00 0.00 0.00 68 1017.5
20260902112305 75 160 1.0 3.0 0.00 0.00 0.00 68 1017.6
20260902112204 75 160 1.0 3.0 0.00 0.00 0.00 68 1017.5
20260902112105 75 162 1.0 3.0 0.00 0.00 0.00 68 1017.5
20260902112005 75 160 1.0 3.0 0.00 0.00 0.00 68 1017.5
20260902111905 75 158 1.0 3.0 0.00 0.00 0.00 68 1017.5
20260902111804 75 157 1.0 3.0 0.00 0.00 0.00 68 1017.5
20260902111704 75 156 1.0 3.0 0.00 0.00 0.00 68 1017.5
20260902111604 75 152 1.0 3.0 0.00 0.00 0.00 67 1017.4
20260902111504 75 152 1.0 3.0 0.00 0.00 0.00 67 1017.4
20260902111404 75 152 1.0 3.0 0.00 0.00 0.00 67 1017.4
20260902111304 75 152 1.0 3.0 0.00 0.00 0.00 67 1017.4
20260902111104 75 151 1.0 3.0 0.00 0.00 0.00 67 1017.5
20260902111004 75 152 1.0 3.0 0.00 0.00 0.00 67 1017.5
20260902110704 75 154 0.0 3.0 0.00 0.00 0.00 67 1017.5
20260902110604 75 153 0.0 3.0 0.00 0.00 0.00 67 1017.4
20260902110504 75 151 0.0 3.0 0.00 0.00 0.00 67 1017.4
20260902110404 75 143 0.0 2.0 0.00 0.00 0.00 67 1017.5
20260902110304 75 143 0.0 2.0 0.00 0.00 0.00 67 1017.4
20260902110204 75 142 0.0 2.0 0.00 0.00 0.00 67 1017.4
20260902110007 76 142 0.0 1.0 0.00 0.00 0.00 67 1017.4
20260902105904 76 141 0.0 3.0 0.00 0.00 0.00 67 1017.4
20260902105805 76 146 0.0 3.0 0.00 0.00 0.00 67 1017.4
20260902105705 76 146 0.0 3.0 0.00 0.00 0.00 67 1017.4
20260902105604 76 148 0.0 3.0 0.00 0.00 0.00 66 1017.4
20260902105505 76 156 0.0 3.0 0.00 0.00 0.00 66 1017.4
20260902105404 76 159 0.0 3.0 0.00 0.00 0.00 66 1017.5
20260902105306 76 159 0.0 3.0 0.00 0.00 0.00 66 1017.4
20260902105205 76 164 0.0 3.0 0.00 0.00 0.00 66 1017.5
20260902105104 76 166 0.0 3.0 0.00 0.00 0.00 66 1017.5
20260902104904 76 165 0.0 3.0 0.00 0.00 0.00 66 1017.5
20260902104804 76 163 0.0 3.0 0.00 0.00 0.00 66 1017.5
20260902104704 76 163 0.0 3.0 0.00 0.00 0.00 66 1017.5
20260902104604 76 163 0.0 3.0 0.00 0.00 0.00 66 1017.4
20260902104504 76 162 0.0 3.0 0.00 0.00 0.00 66 1017.5
20260902104404 76 162 0.0 3.0 0.00 0.00 0.00 66 1017.4
20260902104204 76 159 0.0 3.0 0.00 0.00 0.00 66 1017.4
20260902104104 76 156 0.0 3.0 0.00 0.00 0.00 66 1017.4
20260902104004 76 157 0.0 3.0 0.00 0.00 0.00 66 1017.4
20260902103904 76 159 0.0 3.0 0.00 0.00 0.00 65 1017.4
20260902103804 76 164 1.0 3.0 0.00 0.00 0.00 65 1017.3
20260902103704 76 163 1.0 3.0 0.00 0.00 0.00 65 1017.3
20260902103604 76 161 1.0 3.0 0.00 0.00 0.00 65 1017.3
20260902103504 76 161 1.0 3.0 0.00 0.00 0.00 65 1017.3
20260902103204 76 158 1.0 3.0 0.00 0.00 0.00 65 1017.3
20260902102905 76 150 1.0 3.0 0.00 0.00 0.00 65 1017.3
20260902102804 76 140 1.0 3.0 0.00 0.00 0.00 65 1017.3
20260902102704 76 137 0.0 3.0 0.00 0.00 0.00 65 1017.2
20260902102604 76 134 0.0 3.0 0.00 0.00 0.00 65 1017.2
20260902102504 76 134 0.0 3.0 0.00 0.00 0.00 65 1017.2
20260902102307 76 135 0.0 3.0 0.00 0.00 0.00 65 1017.2
20260902102204 76 144 0.0 4.0 0.00 0.00 0.00 64 1017.2
20260902102104 76 147 1.0 4.0 0.00 0.00 0.00 64 1017.2
20260902102004 76 147 1.0 4.0 0.00 0.00 0.00 64 1017.2
20260902101804 76 155 1.0 4.0 0.00 0.00 0.00 64 1017.2
20260902101704 77 155 1.0 4.0 0.00 0.00 0.00 64 1017.2
20260902101504 77 153 1.0 4.0 0.00 0.00 0.00 64 1017.2
20260902101404 77 152 1.0 4.0 0.00 0.00 0.00 64 1017.2
20260902101304 77 151 1.0 4.0 0.00 0.00 0.00 64 1017.2
20260902100805 77 148 1.0 3.0 0.00 0.00 0.00 64 1017.2
20260902100704 77 148 1.0 3.0 0.00 0.00 0.00 64 1017.2
20260902100505 77 152 1.0 5.0 0.00 0.00 0.00 64 1017.2
20260902100304 77 154 1.0 5.0 0.00 0.00 0.00 64 1017.2
20260902100204 77 155 1.0 5.0 0.00 0.00 0.00 64 1017.2
20260902100104 77 155 1.0 5.0 0.00 0.00 0.00 64 1017.2
20260902100005 77 153 1.0 5.0 0.00 0.00 0.00 64 1017.2
20260902095905 77 152 1.0 5.0 0.00 0.00 0.00 64 1017.1
20260902095804 77 151 1.0 5.0 0.00 0.00 0.00 64 1017.1
20260902095705 77 151 1.0 5.0 0.00 0.00 0.00 64 1017.2
20260902095605 77 148 1.0 4.0 0.00 0.00 0.00 63 1017.1
20260902095505 77 147 1.0 4.0 0.00 0.00 0.00 64 1017.1
20260902095307 77 146 1.0 4.0 0.00 0.00 0.00 63 1017.1
20260902095205 77 145 1.0 4.0 0.00 0.00 0.00 63 1017.1
20260902095104 77 145 1.0 4.0 0.00 0.00 0.00 63 1017.1
20260902095005 77 145 1.0 4.0 0.00 0.00 0.00 63 1017.1
20260902094905 77 146 1.0 4.0 0.00 0.00 0.00 63 1017.1
20260902094805 77 145 1.0 2.0 0.00 0.00 0.00 63 1017.1
20260902094705 77 145 1.0 3.0 0.00 0.00 0.00 63 1017.1
20260902094605 77 145 1.0 3.0 0.00 0.00 0.00 63 1017.1
20260902094505 77 146 0.0 3.0 0.00 0.00 0.00 63 1017.2
20260902094405 77 147 0.0 3.0 0.00 0.00 0.00 63 1017.1
20260902094305 77 147 0.0 3.0 0.00 0.00 0.00 63 1017.2
20260902094205 77 146 0.0 3.0 0.00 0.00 0.00 63 1017.2
20260902094105 77 146 0.0 3.0 0.00 0.00 0.00 63 1017.2
20260902094005 77 146 0.0 3.0 0.00 0.00 0.00 63 1017.2
20260902093905 77 146 0.0 3.0 0.00 0.00 0.00 63 1017.1
20260902093804 77 146 0.0 3.0 0.00 0.00 0.00 63 1017.2
20260902093704 77 146 0.0 2.0 0.00 0.00 0.00 63 1017.1
20260902093604 77 149 0.0 2.0 0.00 0.00 0.00 63 1017.2
20260902093304 77 151 1.0 2.0 0.00 0.00 0.00 63 1017.2
20260902093204 77 154 1.0 4.0 0.00 0.00 0.00 63 1017.2
20260902093005 77 152 1.0 4.0 0.00 0.00 0.00 63 1017.2
20260902092605 77 150 1.0 4.0 0.00 0.00 0.00 63 1017.2
20260902092505 77 149 1.0 4.0 0.00 0.00 0.00 63 1017.1
20260902092405 77 148 1.0 4.0 0.00 0.00 0.00 63 1017.1
20260902092305 77 149 1.0 4.0 0.00 0.00 0.00 63 1017.1
20260902092205 77 145 1.0 3.0 0.00 0.00 0.00 63 1017.1
20260902092104 77 145 1.0 3.0 0.00 0.00 0.00 63 1017.1
20260902092004 77 147 1.0 3.0 0.00 0.00 0.00 63 1017.1
20260902091904 77 149 1.0 4.0 0.00 0.00 0.00 62 1017.1
20260902091804 77 149 1.0 4.0 0.00 0.00 0.00 62 1017.1
20260902091705 77 148 1.0 4.0 0.00 0.00 0.00 62 1017.1
20260902091505 77 146 1.0 4.0 0.00 0.00 0.00 62 1017.1
20260902091405 77 146 1.0 4.0 0.00 0.00 0.00 62 1017.1
20260902091305 77 147 1.0 4.0 0.00 0.00 0.00 62 1017.1
20260902091205 77 147 1.0 4.0 0.00 0.00 0.00 62 1017.0
20260902091104 77 148 1.0 4.0 0.00 0.00 0.00 62 1017.0
20260902091004 77 148 1.0 4.0 0.00 0.00 0.00 62 1017.0
20260902090904 77 147 1.0 4.0 0.00 0.00 0.00 62 1017.1
20260902090704 77 149 1.0 4.0 0.00 0.00 0.00 62 1017.1
20260902090505 77 150 1.0 4.0 0.00 0.00 0.00 62 1017.1
20260902090305 77 151 1.0 4.0 0.00 0.00 0.00 62 1017.1
20260902090205 77 150 1.0 4.0 0.00 0.00 0.00 62 1017.1
20260902090005 77 145 1.0 2.0 0.00 0.00 0.00 62 1017.1
20260902085905 77 143 1.0 2.0 0.00 0.00 0.00 62 1017.1
20260902085705 77 139 1.0 2.0 0.00 0.00 0.00 62 1017.1
20260902085605 77 139 1.0 2.0 0.00 0.00 0.00 62 1017.0
20260902085505 77 138 1.0 2.0 0.00 0.00 0.00 62 1017.1
20260902085306 77 137 1.0 2.0 0.00 0.00 0.00 62 1017.1
20260902085205 77 137 0.0 2.0 0.00 0.00 0.00 62 1017.1
20260902085105 77 138 0.0 2.0 0.00 0.00 0.00 62 1017.1
20260902084905 77 142 1.0 2.0 0.00 0.00 0.00 62 1017.0
20260902084805 77 143 1.0 2.0 0.00 0.00 0.00 62 1017.1
20260902084704 77 146 1.0 3.0 0.00 0.00 0.00 62 1017.0
20260902084604 77 148 0.0 3.0 0.00 0.00 0.00 62 1017.0
20260902084504 77 149 1.0 3.0 0.00 0.00 0.00 62 1017.0
20260902084404 77 149 1.0 3.0 0.00 0.00 0.00 62 1017.0
20260902084304 77 148 1.0 3.0 0.00 0.00 0.00 62 1017.0
20260902084204 77 148 1.0 3.0 0.00 0.00 0.00 61 1017.0
20260902084104 77 146 1.0 3.0 0.00 0.00 0.00 61 1017.0
20260902084004 77 146 1.0 3.0 0.00 0.00 0.00 61 1017.0
20260902083804 77 147 1.0 3.0 0.00 0.00 0.00 61 1017.0
20260902083704 77 148 1.0 4.0 0.00 0.00 0.00 61 1017.0
20260902083604 77 145 1.0 4.0 0.00 0.00 0.00 61 1017.0
20260902083504 77 145 1.0 4.0 0.00 0.00 0.00 61 1017.0
20260902083304 77 144 1.0 4.0 0.00 0.00 0.00 61 1017.0
20260902083204 77 144 1.0 4.0 0.00 0.00 0.00 61 1017.1
20260902083004 77 146 1.0 4.0 0.00 0.00 0.00 61 1017.0
20260902082804 77 148 1.0 4.0 0.00 0.00 0.00 61 1017.0
20260902082704 77 146 1.0 3.0 0.00 0.00 0.00 61 1017.0
20260902082604 77 149 1.0 3.0 0.00 0.00 0.00 61 1017.0
20260902082504 77 149 1.0 3.0 0.00 0.00 0.00 61 1017.0
20260902082404 77 150 1.0 3.0 0.00 0.00 0.00 61 1016.9
20260902082309 77 152 1.0 3.0 0.00 0.00 0.00 61 1016.9
20260902082204 77 153 1.0 3.0 0.00 0.00 0.00 61 1016.9
20260902082104 77 151 1.0 3.0 0.00 0.00 0.00 61 1016.9
20260902082004 77 151 1.0 4.0 0.00 0.00 0.00 61 1016.9
20260902081904 77 150 1.0 4.0 0.00 0.00 0.00 61 1017.0
20260902081804 77 149 1.0 4.0 0.00 0.00 0.00 61 1016.9
20260902081705 77 148 1.0 4.0 0.00 0.00 0.00 61 1016.9
20260902081605 77 149 1.0 4.0 0.00 0.00 0.00 61 1016.9
20260902081505 77 149 1.0 4.0 0.00 0.00 0.00 61 1016.9
20260902081405 77 149 1.0 4.0 0.00 0.00 0.00 61 1016.9
20260902081305 77 147 1.0 4.0 0.00 0.00 0.00 61 1016.9
20260902081205 77 147 1.0 4.0 0.00 0.00 0.00 61 1016.9
20260902081005 77 149 1.0 4.0 0.00 0.00 0.00 60 1017.0
20260902080905 77 148 1.0 4.0 0.00 0.00 0.00 60 1017.0
20260902080805 78 145 1.0 4.0 0.00 0.00 0.00 60 1017.0
20260902080705 78 144 1.0 4.0 0.00 0.00 0.00 60 1017.0
20260902080605 78 144 1.0 4.0 0.00 0.00 0.00 60 1017.0
20260902080505 78 146 1.0 4.0 0.00 0.00 0.00 60 1017.0
20260902080405 78 148 1.0 3.0 0.00 0.00 0.00 60 1017.0
20260902080305 78 148 1.0 3.0 0.00 0.00 0.00 60 1017.0
20260902080205 78 149 1.0 3.0 0.00 0.00 0.00 60 1017.0
20260902080105 78 149 1.0 3.0 0.00 0.00 0.00 60 1017.0
20260902075905 78 150 0.0 3.0 0.00 0.00 0.00 60 1017.1
20260902075805 78 156 0.0 3.0 0.00 0.00 0.00 60 1017.1
20260902075604 78 158 0.0 3.0 0.00 0.00 0.00 60 1017.1
20260902075504 78 156 0.0 2.0 0.00 0.00 0.00 60 1017.0
20260902075404 78 154 0.0 2.0 0.00 0.00 0.00 60 1017.0
20260902075306 78 155 1.0 2.0 0.00 0.00 0.00 60 1017.0
20260902075204 78 156 1.0 4.0 0.00 0.00 0.00 60 1017.1
20260902075004 78 156 1.0 4.0 0.00 0.00 0.00 60 1017.1
20260902074904 78 155 1.0 4.0 0.00 0.00 0.00 60 1017.1
20260902074804 78 153 1.0 4.0 0.00 0.00 0.00 60 1017.1
20260902074704 78 153 0.0 4.0 0.00 0.00 0.00 60 1017.1
20260902074604 78 152 1.0 4.0 0.00 0.00 0.00 60 1017.0
20260902074504 78 151 1.0 4.0 0.00 0.00 0.00 59 1017.0
20260902074404 78 150 1.0 4.0 0.00 0.00 0.00 59 1017.0
20260902074304 78 150 1.0 4.0 0.00 0.00 0.00 59 1017.0
20260902074204 78 150 1.0 3.0 0.00 0.00 0.00 59 1017.0
20260902074104 78 149 1.0 3.0 0.00 0.00 0.00 59 1017.0
20260902074004 78 149 1.0 3.0 0.00 0.00 0.00 59 1017.0
20260902073904 78 149 1.0 3.0 0.00 0.00 0.00 59 1017.0
20260902073804 78 149 1.0 3.0 0.00 0.00 0.00 59 1017.1
20260902073704 78 149 1.0 3.0 0.00 0.00 0.00 59 1017.0
20260902073604 78 149 1.0 3.0 0.00 0.00 0.00 59 1017.0
20260902073504 78 148 1.0 3.0 0.00 0.00 0.00 59 1017.0
20260902073404 78 148 1.0 3.0 0.00 0.00 0.00 59 1017.0
20260902073304 78 146 1.0 2.0 0.00 0.00 0.00 59 1017.0
20260902073204 78 144 1.0 2.0 0.00 0.00 0.00 59 1017.0
20260902073104 78 143 1.0 2.0 0.00 0.00 0.00 59 1017.0
20260902073004 78 144 1.0 3.0 0.00 0.00 0.00 59 1016.9
20260902072904 78 144 1.0 3.0 0.00 0.00 0.00 59 1017.0
20260902072704 78 143 0.0 3.0 0.00 0.00 0.00 59 1017.0
20260902072604 78 143 0.0 3.0 0.00 0.00 0.00 59 1017.0
20260902072504 78 144 0.0 3.0 0.00 0.00 0.00 59 1017.0
20260902072404 78 145 0.0 3.0 0.00 0.00 0.00 59 1017.0
20260902072204 78 148 0.0 3.0 0.00 0.00 0.00 59 1017.0
20260902072005 78 153 0.0 3.0 0.00 0.00 0.00 59 1017.0
20260902071705 78 155 0.0 3.0 0.00 0.00 0.00 59 1017.0
20260902071605 78 153 0.0 3.0 0.00 0.00 0.00 58 1017.0
20260902071504 78 153 0.0 3.0 0.00 0.00 0.00 58 1017.0
20260902071404 78 149 0.0 3.0 0.00 0.00 0.00 58 1017.0
20260902071204 78 147 0.0 3.0 0.00 0.00 0.00 58 1017.0
20260902071104 79 141 0.0 2.0 0.00 0.00 0.00 58 1017.0
20260902071004 79 141 0.0 2.0 0.00 0.00 0.00 58 1016.9
20260902070904 79 141 0.0 2.0 0.00 0.00 0.00 58 1016.9
20260902070804 79 141 0.0 2.0 0.00 0.00 0.00 58 1016.9
20260902070704 79 144 0.0 2.0 0.00 0.00 0.00 58 1016.9
20260902070604 79 144 0.0 2.0 0.00 0.00 0.00 58 1016.9
20260902070504 79 145 0.0 2.0 0.00 0.00 0.00 58 1016.9
20260902070404 79 151 0.0 2.0 0.00 0.00 0.00 58 1016.9
20260902070304 79 151 0.0 2.0 0.00 0.00 0.00 58 1016.9
20260902070204 79 150 0.0 2.0 0.00 0.00 0.00 58 1017.0
20260902070006 79 148 0.0 2.0 0.00 0.00 0.00 57 1017.0
20260902065904 79 147 0.0 2.0 0.00 0.00 0.00 57 1017.0
20260902065804 79 147 0.0 2.0 0.00 0.00 0.00 57 1017.0
20260902065604 79 150 0.0 3.0 0.00 0.00 0.00 57 1016.9
20260902065505 79 150 1.0 3.0 0.00 0.00 0.00 57 1016.9
20260902065405 79 148 1.0 3.0 0.00 0.00 0.00 57 1016.9
20260902065306 79 148 1.0 3.0 0.00 0.00 0.00 57 1016.9
20260902065205 79 148 1.0 3.0 0.00 0.00 0.00 57 1016.9
20260902065005 79 152 1.0 4.0 0.00 0.00 0.00 57 1016.9
20260902064905 79 151 1.0 4.0 0.00 0.00 0.00 57 1016.9
20260902064805 79 150 1.0 4.0 0.00 0.00 0.00 57 1016.9
20260902064705 79 151 1.0 4.0 0.00 0.00 0.00 56 1016.9
20260902064605 80 148 1.0 4.0 0.00 0.00 0.00 56 1016.9
20260902064505 79 146 1.0 4.0 0.00 0.00 0.00 56 1016.9
20260902064404 80 147 1.0 4.0 0.00 0.00 0.00 56 1016.9
20260902064304 80 146 1.0 4.0 0.00 0.00 0.00 56 1016.8
20260902064204 80 146 1.0 4.0 0.00 0.00 0.00 56 1016.9
20260902064104 80 146 1.0 4.0 0.00 0.00 0.00 56 1016.9
20260902064005 80 140 1.0 3.0 0.00 0.00 0.00 56 1016.9
20260902063904 80 139 1.0 3.0 0.00 0.00 0.00 56 1016.9
20260902063804 80 140 1.0 3.0 0.00 0.00 0.00 56 1016.8
20260902063604 80 140 1.0 3.0 0.00 0.00 0.00 56 1016.9
20260902063504 80 140 1.0 3.0 0.00 0.00 0.00 56 1016.9
20260902063405 80 140 1.0 3.0 0.00 0.00 0.00 56 1017.0
20260902063204 80 143 1.0 4.0 0.00 0.00 0.00 56 1016.9
20260902063104 80 144 0.0 4.0 0.00 0.00 0.00 56 1016.9
20260902062905 80 147 0.0 4.0 0.00 0.00 0.00 56 1016.9
20260902062705 80 145 1.0 4.0 0.00 0.00 0.00 56 1017.0
20260902062505 80 145 1.0 4.0 0.00 0.00 0.00 56 1016.9
20260902062405 80 144 1.0 4.0 0.00 0.00 0.00 56 1017.0
20260902062306 80 138 1.0 3.0 0.00 0.00 0.00 55 1016.9
20260902062205 80 137 1.0 5.0 0.00 0.00 0.00 55 1016.9
20260902062104 80 136 1.0 5.0 0.00 0.00 0.00 56 1016.9
20260902062004 80 136 1.0 5.0 0.00 0.00 0.00 55 1016.9
20260902061805 80 139 1.0 5.0 0.00 0.00 0.00 55 1016.9
20260902061705 80 139 1.0 5.0 0.00 0.00 0.00 55 1017.0
20260902061605 80 137 1.0 5.0 0.00 0.00 0.00 55 1016.9
20260902061505 80 138 1.0 5.0 0.00 0.00 0.00 55 1016.9
20260902061405 80 138 1.0 5.0 0.00 0.00 0.00 55 1016.9
20260902061305 80 139 1.0 5.0 0.00 0.00 0.00 55 1016.9
20260902061205 80 140 1.0 3.0 0.00 0.00 0.00 55 1016.9
20260902061105 80 142 1.0 2.0 0.00 0.00 0.00 55 1016.9
20260902061005 80 141 1.0 2.0 0.00 0.00 0.00 55 1016.9
20260902060905 80 139 1.0 2.0 0.00 0.00 0.00 55 1016.9
20260902060805 80 142 1.0 4.0 0.00 0.00 0.00 55 1016.9
20260902060605 80 141 1.0 4.0 0.00 0.00 0.00 55 1016.8
20260902060505 80 143 1.0 4.0 0.00 0.00 0.00 55 1016.9
20260902060405 80 144 1.0 4.0 0.00 0.00 0.00 55 1016.8
20260902060305 80 146 1.0 4.0 0.00 0.00 0.00 55 1016.8
20260902060205 80 146 1.0 4.0 0.00 0.00 0.00 55 1016.8
20260902060105 80 145 1.0 4.0 0.00 0.00 0.00 55 1016.9
20260902060005 80 145 1.0 4.0 0.00 0.00 0.00 55 1016.9
20260902055905 80 148 1.0 4.0 0.00 0.00 0.00 55 1016.9
20260902055705 80 144 1.0 3.0 0.00 0.00 0.00 55 1016.9
20260902055605 80 146 1.0 3.0 0.00 0.00 0.00 55 1016.9
20260902055504 80 146 1.0 3.0 0.00 0.00 0.00 55 1016.9
20260902055307 80 145 0.0 3.0 0.00 0.00 0.00 55 1016.9
20260902055204 80 146 0.0 3.0 0.00 0.00 0.00 55 1017.0
20260902055104 80 147 0.0 3.0 0.00 0.00 0.00 55 1016.9
20260902055004 80 148 0.0 3.0 0.00 0.00 0.00 55 1016.9
20260902054904 80 143 0.0 2.0 0.00 0.00 0.00 55 1017.0
20260902054804 80 143 0.0 2.0 0.00 0.00 0.00 55 1017.0
20260902054604 80 139 0.0 2.0 0.00 0.00 0.00 55 1016.9
20260902054505 80 136 0.0 2.0 0.00 0.00 0.00 55 1016.9
20260902054405 80 136 0.0 2.0 0.00 0.00 0.00 54 1016.9
20260902054305 80 134 0.0 2.0 0.00 0.00 0.00 54 1017.0
20260902054205 80 133 0.0 2.0 0.00 0.00 0.00 54 1016.9
20260902054105 80 132 0.0 2.0 0.00 0.00 0.00 54 1016.9
20260902053904 81 132 0.0 2.0 0.00 0.00 0.00 54 1016.9
20260902053804 81 131 0.0 2.0 0.00 0.00 0.00 54 1016.9
20260902053704 81 132 0.0 2.0 0.00 0.00 0.00 54 1016.9
20260902053605 81 133 0.0 2.0 0.00 0.00 0.00 54 1016.9
20260902053504 81 137 0.0 2.0 0.00 0.00 0.00 53 1017.0
20260902053404 81 137 0.0 2.0 0.00 0.00 0.00 53 1016.9
20260902053304 81 140 0.0 2.0 0.00 0.00 0.00 53 1016.9
20260902053204 81 141 0.0 2.0 0.00 0.00 0.00 53 1016.9
20260902053104 81 143 0.0 2.0 0.00 0.00 0.00 53 1016.9
20260902053004 81 148 0.0 4.0 0.00 0.00 0.00 53 1016.9
20260902052904 81 148 1.0 4.0 0.00 0.00 0.00 53 1016.9
20260902052804 81 147 1.0 4.0 0.00 0.00 0.00 53 1016.8
20260902052704 81 148 1.0 4.0 0.00 0.00 0.00 53 1016.8
20260902052604 81 148 1.0 4.0 0.00 0.00 0.00 52 1016.9
20260902052504 81 146 1.0 4.0 0.00 0.00 0.00 52 1016.9
20260902052404 81 140 1.0 4.0 0.00 0.00 0.00 52 1016.9
20260902052306 82 139 1.0 4.0 0.00 0.00 0.00 52 1016.9
20260902052204 82 139 1.0 4.0 0.00 0.00 0.00 52 1016.8
20260902052104 82 138 1.0 4.0 0.00 0.00 0.00 52 1016.9
20260902052004 82 134 1.0 2.0 0.00 0.00 0.00 52 1016.9
20260902051904 82 135 1.0 2.0 0.00 0.00 0.00 52 1016.9
20260902051704 82 132 1.0 2.0 0.00 0.00 0.00 51 1016.9
20260902051604 82 129 1.0 3.0 0.00 0.00 0.00 51 1016.9
20260902051504 82 131 1.0 3.0 0.00 0.00 0.00 51 1016.9
20260902051304 82 137 1.0 3.0 0.00 0.00 0.00 51 1016.9
20260902051204 82 137 1.0 3.0 0.00 0.00 0.00 51 1016.9
20260902051104 82 138 1.0 3.0 0.00 0.00 0.00 51 1016.9
20260902050904 82 142 1.0 6.0 0.00 0.00 0.00 51 1016.9
20260902050604 82 145 1.0 6.0 0.00 0.00 0.00 51 1016.9
20260902050504 82 145 1.0 6.0 0.00 0.00 0.00 51 1016.9
20260902050404 82 145 1.0 6.0 0.00 0.00 0.00 50 1016.9
20260902050304 82 145 1.0 6.0 0.00 0.00 0.00 50 1016.9
20260902050204 82 146 1.0 6.0 0.00 0.00 0.00 51 1017.0
20260902050105 82 146 1.0 6.0 0.00 0.00 0.00 50 1016.9
20260902050008 82 141 1.0 4.0 0.00 0.00 0.00 50 1017.0
20260902045904 82 143 1.0 4.0 0.00 0.00 0.00 50 1017.0
20260902045804 82 146 1.0 4.0 0.00 0.00 0.00 50 1017.0
20260902045704 82 148 0.0 4.0 0.00 0.00 0.00 50 1017.0
20260902045505 82 142 0.0 2.0 0.00 0.00 0.00 50 1017.0
20260902045405 82 142 1.0 2.0 0.00 0.00 0.00 50 1017.0
20260902045306 82 143 1.0 2.0 0.00 0.00 0.00 50 1016.9
20260902045204 82 143 1.0 2.0 0.00 0.00 0.00 50 1016.9
20260902045104 82 142 1.0 2.0 0.00 0.00 0.00 50 1016.9
20260902044904 82 141 0.0 2.0 0.00 0.00 0.00 49 1016.9
20260902044804 82 140 0.0 2.0 0.00 0.00 0.00 49 1016.9
20260902044705 82 140 0.0 2.0 0.00 0.00 0.00 49 1016.9
20260902044604 82 140 0.0 2.0 0.00 0.00 0.00 49 1016.9
20260902044304 83 130 0.0 3.0 0.00 0.00 0.00 49 1016.9
20260902044204 83 130 0.0 3.0 0.00 0.00 0.00 49 1016.9
20260902044104 83 130 0.0 3.0 0.00 0.00 0.00 49 1017.0
20260902044004 83 130 1.0 3.0 0.00 0.00 0.00 48 1016.9
20260902043905 83 131 1.0 3.0 0.00 0.00 0.00 48 1016.9
20260902043804 83 131 0.0 3.0 0.00 0.00 0.00 48 1016.9
20260902043705 83 131 1.0 3.0 0.00 0.00 0.00 48 1016.9
20260902043605 83 131 0.0 3.0 0.00 0.00 0.00 48 1016.9
20260902043505 83 127 1.0 2.0 0.00 0.00 0.00 48 1016.9
20260902043405 83 130 1.0 3.0 0.00 0.00 0.00 48 1016.8
20260902043305 83 134 1.0 3.0 0.00 0.00 0.00 48 1016.8
20260902043205 83 136 1.0 3.0 0.00 0.00 0.00 48 1016.8
20260902043005 83 135 1.0 3.0 0.00 0.00 0.00 48 1016.8
20260902042904 83 133 1.0 3.0 0.00 0.00 0.00 48 1016.8
20260902042804 83 133 1.0 3.0 0.00 0.00 0.00 48 1016.8
20260902042704 83 133 1.0 3.0 0.00 0.00 0.00 48 1016.8
20260902042504 83 134 1.0 3.0 0.00 0.00 0.00 47 1016.8
20260902042308 83 135 1.0 3.0 0.00 0.00 0.00 47 1016.8
20260902042204 83 132 1.0 3.0 0.00 0.00 0.00 47 1016.9
20260902042105 83 132 1.0 3.0 0.00 0.00 0.00 47 1016.8
20260902042005 83 131 1.0 3.0 0.00 0.00 0.00 47 1016.8
20260902041905 83 133 1.0 2.0 0.00 0.00 0.00 47 1016.8
20260902041804 83 135 1.0 2.0 0.00 0.00 0.00 47 1016.8
20260902041704 83 135 1.0 2.0 0.00 0.00 0.00 47 1016.8
20260902041604 83 134 1.0 2.0 0.00 0.00 0.00 47 1016.8
20260902041505 83 137 1.0 4.0 0.00 0.00 0.00 47 1016.8
20260902041404 84 136 1.0 4.0 0.00 0.00 0.00 47 1016.8
20260902041304 84 134 1.0 4.0 0.00 0.00 0.00 47 1016.8
20260902041204 84 137 1.0 4.0 0.00 0.00 0.00 47 1016.9
20260902041104 84 137 1.0 4.0 0.00 0.00 0.00 47 1016.9
20260902041005 84 138 1.0 4.0 0.00 0.00 0.00 47 1016.8
20260902040905 84 136 1.0 4.0 0.00 0.00 0.00 47 1016.8
20260902040805 84 134 1.0 4.0 0.00 0.00 0.00 47 1016.9
20260902040704 84 133 1.0 4.0 0.00 0.00 0.00 47 1016.9
20260902040604 84 135 1.0 4.0 0.00 0.00 0.00 47 1016.8
20260902040404 84 135 1.0 3.0 0.00 0.00 0.00 47 1016.9
20260902040304 84 137 1.0 3.0 0.00 0.00 0.00 47 1016.9
20260902040204 84 135 1.0 2.0 0.00 0.00 0.00 47 1016.9
20260902040104 84 135 1.0 2.0 0.00 0.00 0.00 47 1016.9
20260902035904 84 137 1.0 3.0 0.00 0.00 0.00 46 1016.8
20260902035805 84 137 1.0 3.0 0.00 0.00 0.00 46 1016.8
20260902035705 84 136 1.0 3.0 0.00 0.00 0.00 46 1016.8
20260902035605 84 135 1.0 3.0 0.00 0.00 0.00 46 1016.8
20260902035504 84 133 1.0 4.0 0.00 0.00 0.00 46 1016.9
20260902035404 84 135 1.0 4.0 0.00 0.00 0.00 46 1016.8
20260902035305 84 134 1.0 4.0 0.00 0.00 0.00 46 1016.8
20260902035205 84 134 1.0 4.0 0.00 0.00 0.00 46 1016.9
20260902035105 84 135 1.0 4.0 0.00 0.00 0.00 46 1016.8
20260902035005 84 136 1.0 4.0 0.00 0.00 0.00 46 1016.9
20260902034905 84 135 1.0 4.0 0.00 0.00 0.00 46 1016.8
20260902034804 84 137 1.0 4.0 0.00 0.00 0.00 46 1016.9
20260902034704 84 138 1.0 4.0 0.00 0.00 0.00 46 1016.9
20260902034605 84 142 1.0 4.0 0.00 0.00 0.00 46 1016.9
20260902034504 84 144 1.0 4.0 0.00 0.00 0.00 46 1016.8
20260902034404 84 143 1.0 3.0 0.00 0.00 0.00 46 1016.8
20260902034204 84 143 1.0 3.0 0.00 0.00 0.00 46 1016.8
20260902034104 84 143 1.0 3.0 0.00 0.00 0.00 46 1016.8
20260902034005 85 144 1.0 3.0 0.00 0.00 0.00 46 1016.8
20260902033905 85 145 1.0 3.0 0.00 0.00 0.00 46 1016.9
20260902033805 85 146 1.0 3.0 0.00 0.00 0.00 46 1016.8
20260902033705 85 150 1.0 4.0 0.00 0.00 0.00 46 1016.8
20260902033604 85 148 1.0 4.0 0.00 0.00 0.00 45 1016.8
20260902033504 85 148 1.0 4.0 0.00 0.00 0.00 46 1016.8
20260902033404 85 148 1.0 4.0 0.00 0.00 0.00 45 1016.8
20260902033304 85 151 0.0 4.0 0.00 0.00 0.00 45 1016.8
20260902033204 85 151 0.0 4.0 0.00 0.00 0.00 45 1016.8
20260902033104 85 152 1.0 4.0 0.00 0.00 0.00 45 1016.8
20260902033004 85 153 1.0 4.0 0.00 0.00 0.00 45 1016.8
20260902032904 85 152 1.0 4.0 0.00 0.00 0.00 45 1016.8
20260902032805 85 153 1.0 5.0 0.00 0.00 0.00 45 1016.8
20260902032705 85 149 1.0 5.0 0.00 0.00 0.00 45 1016.8
20260902032605 85 148 1.0 5.0 0.00 0.00 0.00 45 1016.7
20260902032505 85 150 1.0 5.0 0.00 0.00 0.00 45 1016.7
20260902032306 85 150 1.0 5.0 0.00 0.00 0.00 44 1016.7
20260902032205 85 150 1.0 5.0 0.00 0.00 0.00 45 1016.7
20260902032104 85 150 1.0 5.0 0.00 0.00 0.00 45 1016.7
20260902032004 86 149 1.0 5.0 0.00 0.00 0.00 45 1016.7
20260902031904 86 150 1.0 5.0 0.00 0.00 0.00 44 1016.7
20260902031804 86 147 1.0 3.0 0.00 0.00 0.00 45 1016.7
20260902031705 86 145 1.0 3.0 0.00 0.00 0.00 44 1016.6
20260902031505 86 140 1.0 2.0 0.00 0.00 0.00 44 1016.6
20260902031405 86 136 1.0 3.0 0.00 0.00 0.00 44 1016.6
20260902031304 86 136 1.0 3.0 0.00 0.00 0.00 44 1016.6
20260902031204 86 139 1.0 4.0 0.00 0.00 0.00 44 1016.6
20260902031104 86 137 1.0 4.0 0.00 0.00 0.00 44 1016.6
20260902031005 86 136 1.0 4.0 0.00 0.00 0.00 44 1016.6
20260902030805 86 137 1.0 4.0 0.00 0.00 0.00 44 1016.6
20260902030705 86 138 1.0 4.0 0.00 0.00 0.00 44 1016.6
20260902030505 86 142 1.0 4.0 0.00 0.00 0.00 44 1016.5
20260902030404 86 146 1.0 4.0 0.00 0.00 0.00 44 1016.5
20260902030304 86 146 0.0 4.0 0.00 0.00 0.00 44 1016.5
20260902030204 86 144 1.0 2.0 0.00 0.00 0.00 44 1016.5
20260902030104 86 147 1.0 4.0 0.00 0.00 0.00 43 1016.5
20260902030004 86 145 1.0 4.0 0.00 0.00 0.00 44 1016.5
20260902025905 86 146 1.0 4.0 0.00 0.00 0.00 43 1016.5
20260902025805 86 147 1.0 4.0 0.00 0.00 0.00 43 1016.5
20260902025705 86 146 1.0 4.0 0.00 0.00 0.00 43 1016.5
20260902025605 86 146 1.0 4.0 0.00 0.00 0.00 43 1016.5
20260902025504 87 144 1.0 4.0 0.00 0.00 0.00 43 1016.5
20260902025204 87 140 1.0 4.0 0.00 0.00 0.00 43 1016.4
20260902025104 87 135 1.0 3.0 0.00 0.00 0.00 43 1016.4
20260902025004 87 133 1.0 3.0 0.00 0.00 0.00 43 1016.4
20260902024904 87 131 1.0 3.0 0.00 0.00 0.00 42 1016.3
20260902024805 87 126 1.0 3.0 0.00 0.00 0.00 43 1016.4
20260902024705 87 125 1.0 3.0 0.00 0.00 0.00 42 1016.3
20260902024505 87 122 1.0 3.0 0.00 0.00 0.00 42 1016.3
20260902024404 87 121 1.0 5.0 0.00 0.00 0.00 42 1016.3
20260902024305 87 121 1.0 5.0 0.00 0.00 0.00 42 1016.3
20260902024204 87 121 1.0 5.0 0.00 0.00 0.00 42 1016.2
20260902024004 87 124 1.0 5.0 0.00 0.00 0.00 42 1016.2
20260902023904 87 124 1.0 5.0 0.00 0.00 0.00 42 1016.2
20260902023804 87 126 1.0 5.0 0.00 0.00 0.00 42 1016.2
20260902023704 87 127 1.0 5.0 0.00 0.00 0.00 42 1016.2
20260902023604 88 128 1.0 5.0 0.00 0.00 0.00 42 1016.1
20260902023504 88 128 1.0 5.0 0.00 0.00 0.00 42 1016.2
20260902023404 88 127 1.0 4.0 0.00 0.00 0.00 42 1016.1
20260902023304 88 128 1.0 4.0 0.00 0.00 0.00 42 1016.1
20260902023205 88 131 1.0 4.0 0.00 0.00 0.00 42 1016.1
20260902023105 88 137 1.0 4.0 0.00 0.00 0.00 41 1016.1
20260902023005 88 137 1.0 4.0 0.00 0.00 0.00 42 1016.1
20260902022905 88 139 1.0 4.0 0.00 0.00 0.00 42 1016.1
20260902022804 88 139 1.0 4.0 0.00 0.00 0.00 42 1016.1
20260902022704 88 138 1.0 4.0 0.00 0.00 0.00 41 1016.0
20260902022604 88 140 1.0 4.0 0.00 0.00 0.00 42 1016.0
20260902022504 88 143 1.0 4.0 0.00 0.00 0.00 42 1016.0
20260902022404 88 143 1.0 4.0 0.00 0.00 0.00 42 1016.0
20260902022306 88 143 1.0 4.0 0.00 0.00 0.00 41 1015.9
20260902022105 88 138 1.0 4.0 0.00 0.00 0.00 42 1015.9
20260902022005 88 139 1.0 4.0 0.00 0.00 0.00 41 1015.9
20260902021904 88 140 1.0 4.0 0.00 0.00 0.00 41 1015.8
20260902021604 88 142 1.0 3.0 0.00 0.00 0.00 41 1015.9
20260902021504 88 142 1.0 3.0 0.00 0.00 0.00 41 1015.8
20260902021404 88 144 1.0 3.0 0.00 0.00 0.00 41 1015.8
20260902021304 88 143 1.0 3.0 0.00 0.00 0.00 41 1015.8
20260902021205 88 145 1.0 3.0 0.00 0.00 0.00 41 1015.8
20260902021105 88 144 1.0 3.0 0.00 0.00 0.00 41 1015.8
20260902021005 88 146 1.0 4.0 0.00 0.00 0.00 41 1015.8
20260902020905 88 145 1.0 4.0 0.00 0.00 0.00 40 1015.7
20260902020704 89 154 1.0 4.0 0.00 0.00 0.00 40 1015.7
20260902020604 89 153 1.0 4.0 0.00 0.00 0.00 41 1015.7
20260902020504 89 148 1.0 4.0 0.00 0.00 0.00 40 1015.7
20260902020405 89 146 1.0 4.0 0.00 0.00 0.00 40 1015.7
20260902020305 89 144 1.0 4.0 0.00 0.00 0.00 40 1015.6
20260902020205 89 144 1.0 5.0 0.00 0.00 0.00 40 1015.6
20260902020104 89 144 1.0 5.0 0.00 0.00 0.00 40 1015.6
20260902020004 89 139 1.0 5.0 0.00 0.00 0.00 40 1015.7
20260902015904 89 139 1.0 5.0 0.00 0.00 0.00 40 1015.6
20260902015804 89 138 1.0 5.0 0.00 0.00 0.00 40 1015.6
20260902015704 89 130 1.0 5.0 0.00 0.00 0.00 40 1015.6
20260902015605 89 130 1.0 5.0 0.00 0.00 0.00 39 1015.6
20260902015505 89 131 1.0 5.0 0.00 0.00 0.00 39 1015.6
20260902015405 89 130 1.0 6.0 0.00 0.00 0.00 39 1015.6
20260902015306 89 130 1.0 6.0 0.00 0.00 0.00 39 1015.6
20260902015204 89 129 1.0 6.0 0.00 0.00 0.00 39 1015.6
20260902015104 90 128 1.0 6.0 0.00 0.00 0.00 39 1015.6
20260902015004 90 127 1.0 6.0 0.00 0.00 0.00 39 1015.6
20260902014904 90 127 1.0 6.0 0.00 0.00 0.00 39 1015.6
20260902014804 90 128 1.0 6.0 0.00 0.00 0.00 39 1015.6
20260902014705 90 128 1.0 6.0 0.00 0.00 0.00 39 1015.6
20260902014605 90 127 1.0 6.0 0.00 0.00 0.00 39 1015.6
20260902014505 90 129 1.0 6.0 0.00 0.00 0.00 39 1015.5
20260902014405 90 128 1.0 4.0 0.00 0.00 0.00 39 1015.5
20260902014204 90 125 1.0 4.0 0.00 0.00 0.00 39 1015.5
20260902014104 90 130 1.0 4.0 0.00 0.00 0.00 39 1015.5
20260902014004 90 131 1.0 4.0 0.00 0.00 0.00 38 1015.4
20260902013904 90 130 1.0 4.0 0.00 0.00 0.00 38 1015.5
20260902013804 90 129 1.0 4.0 0.00 0.00 0.00 39 1015.5
20260902013704 90 130 1.0 4.0 0.00 0.00 0.00 38 1015.4
20260902013605 90 131 1.0 4.0 0.00 0.00 0.00 38 1015.4
20260902013505 90 131 1.0 3.0 0.00 0.00 0.00 38 1015.5
20260902013404 90 131 1.0 3.0 0.00 0.00 0.00 38 1015.4
20260902013104 91 131 1.0 3.0 0.00 0.00 0.00 38 1015.4
20260902013004 91 130 1.0 3.0 0.00 0.00 0.00 38 1015.5
20260902012904 91 134 1.0 5.0 0.00 0.00 0.00 38 1015.5
20260902012804 91 136 1.0 5.0 0.00 0.00 0.00 38 1015.5
20260902012704 91 137 1.0 5.0 0.00 0.00 0.00 37 1015.4
20260902012309 91 135 1.0 5.0 0.00 0.00 0.00 37 1015.4
20260902012005 92 134 2.0 5.0 0.00 0.00 0.00 37 1015.4
20260902011905 92 134 2.0 5.0 0.00 0.00 0.00 37 1015.4
20260902011805 92 136 2.0 6.0 0.00 0.00 0.00 37 1015.4
20260902011705 92 135 2.0 6.0 0.00 0.00 0.00 36 1015.3
20260902011604 92 135 2.0 6.0 0.00 0.00 0.00 36 1015.3
20260902011404 92 136 2.0 6.0 0.00 0.00 0.00 36 1015.4
20260902011304 92 137 2.0 6.0 0.00 0.00 0.00 36 1015.3
20260902011204 92 137 2.0 6.0 0.00 0.00 0.00 36 1015.3
20260902011104 92 138 2.0 6.0 0.00 0.00 0.00 36 1015.3
20260902011004 92 138 2.0 6.0 0.00 0.00 0.00 36 1015.3
20260902010905 92 135 2.0 6.0 0.00 0.00 0.00 36 1015.3
20260902010805 92 132 2.0 5.0 0.00 0.00 0.00 36 1015.4
20260902010705 92 131 2.0 5.0 0.00 0.00 0.00 35 1015.3
20260902010505 92 133 2.0 6.0 0.00 0.00 0.00 35 1015.3
20260902010404 93 135 2.0 6.0 0.00 0.00 0.00 35 1015.2
20260902010304 93 135 2.0 6.0 0.00 0.00 0.00 35 1015.3
20260902010204 93 134 2.0 6.0 0.00 0.00 0.00 35 1015.3
20260902010105 93 135 2.0 6.0 0.00 0.00 0.00 35 1015.3
20260902010004 93 134 2.0 6.0 0.00 0.00 0.00 35 1015.3
20260902005904 93 135 2.0 6.0 0.00 0.00 0.00 35 1015.3
20260902005705 93 135 2.0 6.0 0.00 0.00 0.00 35 1015.3
20260902005605 93 134 2.0 6.0 0.00 0.00 0.00 35 1015.2
20260902005504 93 132 2.0 6.0 0.00 0.00 0.00 35 1015.3
20260902005404 93 130 2.0 6.0 0.00 0.00 0.00 35 1015.3
20260902005306 93 130 2.0 6.0 0.00 0.00 0.00 35 1015.3
20260902005205 93 132 2.0 6.0 0.00 0.00 0.00 35 1015.3
20260902005105 93 132 3.0 6.0 0.00 0.00 0.00 34 1015.2
20260902005004 94 131 2.0 6.0 0.00 0.00 0.00 34 1015.2
20260902004904 94 131 2.0 6.0 0.00 0.00 0.00 34 1015.2
20260902004804 94 131 3.0 6.0 0.00 0.00 0.00 34 1015.3
20260902004704 94 132 3.0 7.0 0.00 0.00 0.00 34 1015.2
20260902004604 94 133 3.0 7.0 0.00 0.00 0.00 34 1015.2
20260902004504 94 134 3.0 7.0 0.00 0.00 0.00 34 1015.2
20260902004404 94 135 3.0 7.0 0.00 0.00 0.00 34 1015.3
20260902004205 94 134 3.0 11.0 0.00 0.00 0.00 34 1015.3
20260902004105 94 137 3.0 11.0 0.00 0.00 0.00 34 1015.3
20260902004005 94 138 3.0 11.0 0.00 0.00 0.00 34 1015.3
20260902003905 94 138 3.0 11.0 0.00 0.00 0.00 34 1015.3
20260902003804 94 140 3.0 11.0 0.00 0.00 0.00 34 1015.3
20260902003704 94 138 3.0 11.0 0.00 0.00 0.00 34 1015.4
20260902003504 94 138 3.0 11.0 0.00 0.00 0.00 33 1015.3
20260902003204 95 139 3.0 7.0 0.00 0.00 0.00 33 1015.3
20260902003105 95 138 3.0 7.0 0.00 0.00 0.00 33 1015.4
20260902003005 95 138 3.0 7.0 0.00 0.00 0.00 33 1015.4
20260902002905 95 140 3.0 8.0 0.00 0.00 0.00 33 1015.4
20260902002805 95 138 3.0 8.0 0.00 0.00 0.00 33 1015.4
20260902002705 95 140 3.0 8.0 0.00 0.00 0.00 33 1015.4
20260902002604 95 140 3.0 9.0 0.00 0.00 0.00 33 1015.4
20260902002504 95 139 3.0 9.0 0.00 0.00 0.00 33 1015.4
20260902002306 95 140 3.0 9.0 0.00 0.00 0.00 32 1015.4
20260902002104 96 138 3.0 9.0 0.00 0.00 0.00 32 1015.4
20260902002005 96 140 3.0 9.0 0.00 0.00 0.00 32 1015.4
20260902001905 96 140 3.0 9.0 0.00 0.00 0.00 32 1015.5
20260902001805 96 140 3.0 9.0 0.00 0.00 0.00 32 1015.4
20260902001704 96 140 3.0 9.0 0.00 0.00 0.00 32 1015.4
20260902001604 96 141 3.0 9.0 0.00 0.00 0.00 32 1015.5
20260902001504 96 143 3.0 9.0 0.00 0.00 0.00 32 1015.4
20260902001404 96 141 3.0 9.0 0.00 0.00 0.00 32 1015.4
20260902001304 96 145 3.0 9.0 0.00 0.00 0.00 31 1015.4
20260902001204 96 146 3.0 9.0 0.00 0.00 0.00 32 1015.5
20260902001105 96 153 3.0 9.0 0.00 0.00 0.00 31 1015.4
20260902001005 96 153 3.0 9.0 0.00 0.00 0.00 32 1015.4
20260902000804 96 154 3.0 9.0 0.00 0.00 0.00 31 1015.4
20260902000704 96 156 3.0 9.0 0.00 0.00 0.00 32 1015.5
20260902000604 96 155 3.0 9.0 0.00 0.00 0.00 31 1015.4
20260902000504 97 155 3.0 9.0 0.00 0.00 0.00 31 1015.4
20260902000406 97 157 3.0 9.0 0.00 0.00 0.00 31 1015.4
20260902000305 97 155 3.0 9.0 0.00 0.00 0.00 31 1015.5
20260902000204 97 155 3.0 9.0 0.00 0.00 0.00 31 1015.5
20260902000104 97 148 3.0 9.0 0.00 0.00 0.00 31 1015.4
20260902000004 97 146 4.0 9.0 0.00 0.00 0.00 31 1015.4
20260901235904 97 148 3.0 9.0 0.00 0.00 0.00 31 1015.5
20260901235804 97 150 4.0 9.0 0.00 0.00 0.00 31 1015.4
20260901235704 97 148 4.0 9.0 0.00 0.00 0.00 31 1015.4
20260901235604 97 149 4.0 9.0 0.00 0.00 0.00 30 1015.4
20260901235505 97 145 4.0 9.0 0.00 0.00 0.00 31 1015.4
20260901235405 97 143 4.0 9.0 0.00 0.00 0.00 30 1015.3
20260901235004 97 145 3.0 9.0 0.00 0.00 0.00 30 1015.4
20260901234904 97 141 3.0 9.0 0.00 0.00 0.00 30 1015.4
20260901234804 97 143 4.0 9.0 0.00 0.00 0.00 30 1015.4
20260901234604 97 150 4.0 10.0 0.00 0.00 0.00 30 1015.4
20260901234404 98 159 4.0 10.0 0.00 0.00 0.00 30 1015.4
20260901234304 98 158 4.0 10.0 0.00 0.00 0.00 30 1015.4
20260901234204 98 157 4.0 10.0 0.00 0.00 0.00 30 1015.4
20260901234005 98 159 4.0 10.0 0.00 0.00 0.00 30 1015.4
20260901233905 98 157 4.0 10.0 0.00 0.00 0.00 30 1015.4
20260901233805 98 154 4.0 10.0 0.00 0.00 0.00 30 1015.4
20260901233704 98 151 3.0 10.0 0.00 0.00 0.00 30 1015.4
20260901233604 98 146 3.0 10.0 0.00 0.00 0.00 30 1015.4
20260901233504 98 145 3.0 10.0 0.00 0.00 0.00 30 1015.5
20260901233404 98 138 3.0 8.0 0.00 0.00 0.00 30 1015.4
20260901233304 98 139 3.0 8.0 0.00 0.00 0.00 30 1015.4
20260901233204 98 140 3.0 8.0 0.00 0.00 0.00 30 1015.4
20260901233104 98 141 3.0 8.0 0.00 0.00 0.00 30 1015.4
20260901233004 98 137 3.0 8.0 0.00 0.00 0.00 30 1015.4
20260901232905 98 142 3.0 10.0 0.00 0.00 0.00 30 1015.4
20260901232805 98 144 3.0 10.0 0.00 0.00 0.00 30 1015.4
20260901232705 98 147 4.0 10.0 0.00 0.00 0.00 30 1015.4
20260901232504 98 149 4.0 10.0 0.00 0.00 0.00 30 1015.4
20260901232404 98 146 4.0 11.0 0.00 0.00 0.00 30 1015.4
20260901232204 98 148 4.0 11.0 0.00 0.00 0.00 30 1015.4
20260901232104 98 150 4.0 11.0 0.00 0.00 0.00 29 1015.4
20260901232004 98 152 4.0 11.0 0.00 0.00 0.00 30 1015.4
20260901231905 98 150 4.0 11.0 0.00 0.00 0.00 30 1015.5
20260901231805 98 155 4.0 11.0 0.00 0.00 0.00 30 1015.4
20260901231705 98 156 4.0 11.0 0.00 0.00 0.00 30 1015.4
20260901231605 99 152 4.0 11.0 0.00 0.00 0.00 29 1015.4
20260901231504 99 156 3.0 11.0 0.00 0.00 0.00 29 1015.4
20260901231404 99 163 4.0 10.0 0.00 0.00 0.00 30 1015.5
20260901231304 99 166 4.0 10.0 0.00 0.00 0.00 30 1015.5
20260901231104 99 160 4.0 10.0 0.00 0.00 0.00 30 1015.5
20260901231004 99 160 4.0 10.0 0.00 0.00 0.00 30 1015.5
20260901230904 99 162 4.0 10.0 0.00 0.00 0.00 30 1015.5
20260901230804 99 155 4.0 8.0 0.00 0.00 0.00 30 1015.5
20260901230704 99 157 4.0 8.0 0.00 0.00 0.00 30 1015.5
20260901230605 99 160 4.0 8.0 0.00 0.00 0.00 29 1015.5
20260901230505 99 162 3.0 7.0 0.00 0.00 0.00 30 1015.5
20260901230305 99 151 3.0 7.0 0.00 0.00 0.00 30 1015.4
20260901230104 99 159 3.0 7.0 0.00 0.00 0.00 30 1015.5
20260901230005 99 158 3.0 7.0 0.00 0.00 0.00 30 1015.5
20260901225904 99 159 3.0 8.0 0.00 0.00 0.00 29 1015.5
20260901225804 99 165 4.0 8.0 0.00 0.00 0.00 30 1015.4
20260901225704 99 168 4.0 9.0 0.00 0.00 0.00 30 1015.5
20260901225605 99 168 4.0 9.0 0.00 0.00 0.00 30 1015.5
20260901225405 99 169 4.0 9.0 0.00 0.00 0.00 30 1015.5
20260901225306 99 173 5.0 10.0 0.00 0.00 0.00 30 1015.5
20260901225205 99 168 5.0 10.0 0.00 0.00 0.00 30 1015.5
20260901225104 99 169 5.0 13.0 0.00 0.00 0.00 30 1015.5
20260901225004 99 170 5.0 13.0 0.00 0.00 0.00 30 1015.5
20260901224904 99 164 5.0 13.0 0.00 0.00 0.00 30 1015.5
20260901224804 99 160 5.0 13.0 0.00 0.00 0.00 30 1015.5
20260901224705 99 159 4.0 13.0 0.00 0.00 0.00 30 1015.5
20260901224605 99 158 5.0 13.0 0.00 0.00 0.00 30 1015.5
20260901224404 99 154 4.0 13.0 0.00 0.00 0.00 29 1015.6
20260901224304 99 149 4.0 13.0 0.00 0.00 0.00 30 1015.6
20260901224204 99 153 4.0 13.0 0.00 0.00 0.00 30 1015.6
20260901224004 99 147 4.0 10.0 0.00 0.00 0.00 29 1015.5
20260901223904 99 151 4.0 8.0 0.00 0.00 0.00 30 1015.6
20260901223804 99 151 3.0 8.0 0.00 0.00 0.00 30 1015.5
20260901223705 99 146 3.0 8.0 0.00 0.00 0.00 30 1015.5
20260901223605 99 145 3.0 8.0 0.00 0.00 0.00 30 1015.5
20260901223404 99 155 4.0 9.0 0.00 0.00 0.00 30 1015.5
20260901223304 99 166 4.0 13.0 0.00 0.00 0.00 29 1015.5
20260901223207 99 165 4.0 13.0 0.00 0.00 0.00 29 1015.5
20260901223105 99 170 4.0 13.0 0.00 0.00 0.00 30 1015.4